GFSNIL_prec_precacc_045.txt.gz
Total_Precipitation_Accumulation
0.00 0.00 0.00 0.00 0.00 0.00 0.00 0.00 0.00 0.00 0.00 0.00 0.00 0.00 0.01 0.03 0.04 0.06 0.09 0.11 0.12 0.15
0.00 0.00 0.00 0.00 0.00 0.00 0.00 0.00 0.00 0.00 0.00 0.00 0.00 0.00 0.00 0.01 0.02 0.04 0.08 0.09 0.12 0.15
0.00 0.00 0.00 0.00 0.00 0.00 0.00 0.00 0.00 0.00 0.00 0.00 0.00 0.00 0.00 0.00 0.01 0.02 0.04 0.07 0.09 0.10
0.00 0.00 0.00 0.00 0.00 0.00 0.00 0.00 0.00 0.00 0.00 0.00 0.00 0.00 0.00 0.00 0.00 0.00 0.02 0.04 0.08 0.09
0.00 0.00 0.00 0.00 0.00 0.00 0.00 0.00 0.00 0.00 0.00 0.00 0.00 0.00 0.00 0.00 0.00 0.00 0.00 0.01 0.05 0.07
0.00 0.00 0.00 0.00 0.00 0.00 0.00 0.00 0.00 0.00 0.00 0.00 0.00 0.00 0.00 0.00 0.00 0.00 0.00 0.00 0.02 0.03
0.00 0.00 0.00 0.00 0.00 0.00 0.00 0.00 0.00 0.00 0.00 0.00 0.00 0.00 0.00 0.00 0.00 0.00 0.00 0.00 0.00 0.01
0.00 0.00 0.00 0.00 0.00 0.00 0.00 0.00 0.00 0.00 0.00 0.00 0.00 0.00 0.00 0.00 0.00 0.00 0.00 0.00 0.00 0.00
0.00 0.00 0.00 0.00 0.00 0.00 0.00 0.00 0.00 0.00 0.00 0.00 0.00 0.00 0.00 0.00 0.00 0.00 0.00 0.00 0.00 0.00
0.00 0.00 0.00 0.00 0.00 0.00 0.00 0.00 0.00 0.00 0.00 0.00 0.00 0.00 0.00 0.00 0.00 0.00 0.00 0.00 0.00 0.00
0.00 0.00 0.00 0.00 0.00 0.00 0.00 0.00 0.00 0.00 0.00 0.00 0.00 0.00 0.00 0.00 0.00 0.00 0.00 0.00 0.00 0.01
0.00 0.00 0.00 0.00 0.00 0.00 0.00 0.00 0.00 0.00 0.00 0.00 0.00 0.00 0.00 0.00 0.00 0.00 0.00 0.00 0.01 0.05
0.00 0.00 0.00 0.00 0.00 0.00 0.00 0.00 0.00 0.00 0.00 0.00 0.00 0.00 0.00 0.00 0.01 0.01 0.00 0.02 0.02 0.03
0.00 0.00 0.00 0.00 0.00 0.00 0.00 0.00 0.00 0.00 0.00 0.00 0.00 0.00 0.00 0.00 0.02 0.03 0.14 0.11 0.03 0.03

GFSNIL_prec_precacc_051.txt.gz
Total_Precipitation_Accumulation
0.00 0.00 0.01 0.01 0.00 0.00 0.00 0.00 0.00 0.00 0.00 0.00 0.00 0.00 0.01 0.03 0.04 0.06 0.09 0.11 0.12 0.15
0.00 0.00 0.00 0.00 0.00 0.00 0.00 0.00 0.00 0.00 0.00 0.00 0.00 0.00 0.00 0.01 0.02 0.04 0.08 0.09 0.12 0.15
0.00 0.00 0.00 0.00 0.00 0.00 0.00 0.00 0.00 0.00 0.00 0.00 0.00 0.00 0.00 0.00 0.01 0.02 0.04 0.07 0.09 0.10
0.00 0.00 0.00 0.00 0.00 0.00 0.00 0.00 0.00 0.00 0.00 0.00 0.00 0.00 0.00 0.00 0.00 0.00 0.02 0.04 0.08 0.09
0.00 0.00 0.00 0.00 0.00 0.00 0.00 0.00 0.00 0.00 0.00 0.00 0.00 0.00 0.00 0.00 0.00 0.00 0.00 0.01 0.05 0.07
0.00 0.00 0.00 0.00 0.00 0.00 0.00 0.00 0.00 0.00 0.00 0.00 0.00 0.00 0.00 0.00 0.00 0.00 0.00 0.00 0.02 0.03
0.00 0.00 0.00 0.00 0.00 0.00 0.00 0.00 0.00 0.00 0.00 0.00 0.00 0.00 0.00 0.00 0.00 0.00 0.00 0.00 0.00 0.01
0.00 0.00 0.00 0.00 0.00 0.00 0.00 0.00 0.00 0.00 0.00 0.00 0.00 0.00 0.00 0.00 0.00 0.00 0.00 0.00 0.00 0.00
0.00 0.00 0.00 0.00 0.00 0.00 0.00 0.00 0.00 0.00 0.00 0.00 0.00 0.00 0.00 0.00 0.00 0.00 0.00 0.00 0.00 0.00
0.00 0.00 0.00 0.00 0.00 0.00 0.00 0.00 0.00 0.00 0.00 0.00 0.00 0.00 0.00 0.00 0.00 0.00 0.00 0.00 0.00 0.00
0.00 0.00 0.00 0.00 0.00 0.00 0.00 0.00 0.00 0.00 0.00 0.00 0.00 0.00 0.00 0.00 0.00 0.00 0.00 0.00 0.00 0.01
0.00 0.00 0.00 0.00 0.00 0.00 0.00 0.00 0.00 0.00 0.00 0.00 0.00 0.00 0.00 0.00 0.00 0.00 0.00 0.00 0.01 0.05
0.00 0.00 0.00 0.00 0.00 0.00 0.00 0.00 0.00 0.00 0.00 0.00 0.00 0.00 0.00 0.00 0.01 0.01 0.00 0.02 0.02 0.03
0.00 0.00 0.00 0.00 0.00 0.00 0.00 0.00 0.00 0.00 0.00 0.00 0.00 0.00 0.00 0.00 0.02 0.03 0.14 0.11 0.03 0.03

GFSNIL_prec_precacc_054.txt.gz
Total_Precipitation_Accumulation
0.00 0.00 0.01 0.01 0.00 0.01 0.01 0.00 0.00 0.00 0.00 0.00 0.00 0.00 0.01 0.03 0.04 0.06 0.09 0.11 0.12 0.15
0.00 0.00 0.00 0.00 0.00 0.00 0.00 0.00 0.00 0.00 0.00 0.00 0.00 0.00 0.00 0.01 0.02 0.04 0.08 0.09 0.12 0.15
0.00 0.00 0.01 0.00 0.00 0.00 0.00 0.00 0.00 0.00 0.00 0.00 0.00 0.00 0.00 0.00 0.01 0.02 0.04 0.07 0.09 0.10
0.00 0.00 0.00 0.00 0.00 0.00 0.00 0.00 0.00 0.00 0.00 0.00 0.00 0.00 0.00 0.00 0.00 0.00 0.02 0.04 0.08 0.09
0.00 0.00 0.00 0.00 0.00 0.00 0.00 0.00 0.00 0.00 0.00 0.00 0.00 0.00 0.00 0.00 0.00 0.00 0.00 0.01 0.05 0.07
0.00 0.00 0.00 0.00 0.00 0.00 0.00 0.00 0.00 0.00 0.00 0.00 0.00 0.00 0.00 0.00 0.00 0.00 0.00 0.00 0.02 0.03
0.00 0.00 0.00 0.00 0.00 0.00 0.00 0.00 0.00 0.00 0.00 0.00 0.00 0.00 0.00 0.00 0.00 0.00 0.00 0.00 0.00 0.01
0.00 0.00 0.00 0.00 0.00 0.00 0.00 0.00 0.00 0.00 0.00 0.00 0.00 0.00 0.00 0.00 0.00 0.00 0.00 0.00 0.00 0.00
0.01 0.00 0.00 0.00 0.00 0.00 0.00 0.00 0.00 0.00 0.00 0.00 0.00 0.00 0.00 0.00 0.00 0.00 0.00 0.00 0.00 0.00
0.01 0.00 0.00 0.00 0.00 0.00 0.00 0.00 0.00 0.00 0.00 0.00 0.00 0.00 0.00 0.00 0.00 0.00 0.00 0.00 0.00 0.00
0.00 0.00 0.00 0.00 0.00 0.00 0.00 0.00 0.00 0.00 0.00 0.00 0.00 0.00 0.00 0.00 0.00 0.00 0.00 0.00 0.00 0.01
0.00 0.00 0.00 0.00 0.00 0.00 0.00 0.00 0.00 0.00 0.00 0.00 0.00 0.00 0.00 0.00 0.00 0.00 0.00 0.00 0.01 0.05
0.00 0.00 0.00 0.00 0.00 0.00 0.00 0.00 0.00 0.00 0.00 0.00 0.00 0.00 0.00 0.00 0.01 0.01 0.00 0.02 0.02 0.03
0.00 0.00 0.00 0.00 0.00 0.00 0.00 0.00 0.00 0.00 0.00 0.00 0.00 0.00 0.00 0.00 0.02 0.03 0.14 0.11 0.03 0.03

GFSNIL_prec_precacc_057.txt.gz
Total_Precipitation_Accumulation
0.02 0.03 0.04 0.04 0.03 0.02 0.03 0.02 0.00 0.00 0.00 0.01 0.01 0.01 0.01 0.03 0.04 0.06 0.09 0.11 0.12 0.15
0.02 0.03 0.04 0.04 0.02 0.01 0.01 0.00 0.00 0.00 0.00 0.01 0.01 0.00 0.00 0.01 0.02 0.04 0.08 0.09 0.12 0.15
0.02 0.03 0.03 0.02 0.01 0.01 0.00 0.00 0.00 0.00 0.00 0.00 0.00 0.00 0.00 0.00 0.01 0.02 0.04 0.07 0.09 0.10
0.00 0.01 0.01 0.00 0.00 0.00 0.00 0.00 0.00 0.00 0.00 0.00 0.00 0.00 0.00 0.00 0.00 0.00 0.02 0.04 0.08 0.09
0.00 0.00 0.00 0.00 0.00 0.00 0.00 0.00 0.00 0.00 0.00 0.00 0.00 0.00 0.00 0.00 0.00 0.00 0.00 0.01 0.05 0.07
0.00 0.00 0.00 0.00 0.00 0.00 0.01 0.00 0.00 0.00 0.00 0.00 0.00 0.00 0.00 0.00 0.00 0.00 0.00 0.00 0.02 0.03
0.01 0.00 0.00 0.00 0.00 0.01 0.01 0.01 0.00 0.00 0.00 0.00 0.00 0.00 0.00 0.00 0.00 0.00 0.00 0.00 0.00 0.01
0.00 0.00 0.01 0.01 0.01 0.01 0.01 0.00 0.00 0.00 0.00 0.00 0.00 0.00 0.00 0.00 0.00 0.00 0.00 0.00 0.00 0.00
0.02 0.01 0.01 0.01 0.00 0.00 0.00 0.00 0.00 0.00 0.00 0.00 0.00 0.00 0.00 0.00 0.00 0.00 0.00 0.00 0.00 0.00
0.03 0.04 0.03 0.02 0.00 0.01 0.00 0.00 0.00 0.00 0.00 0.00 0.00 0.00 0.00 0.00 0.00 0.00 0.00 0.00 0.00 0.00
0.07 0.10 0.12 0.02 0.01 0.01 0.01 0.00 0.00 0.00 0.00 0.00 0.00 0.00 0.00 0.00 0.00 0.00 0.00 0.00 0.00 0.01
0.12 0.06 0.04 0.02 0.03 0.02 0.00 0.00 0.00 0.00 0.00 0.00 0.00 0.00 0.00 0.00 0.00 0.00 0.00 0.00 0.01 0.05
0.10 0.05 0.02 0.00 0.00 0.00 0.00 0.00 0.00 0.00 0.00 0.00 0.00 0.00 0.00 0.00 0.01 0.01 0.00 0.02 0.02 0.03
0.03 0.03 0.00 0.00 0.00 0.00 0.00 0.00 0.00 0.00 0.00 0.00 0.00 0.00 0.00 0.00 0.02 0.03 0.14 0.11 0.03 0.03

GFSNIL_prec_precacc_060.txt.gz
Total_Precipitation_Accumulation
0.03 0.04 0.06 0.06 0.07 0.06 0.08 0.08 0.06 0.05 0.04 0.02 0.01 0.01 0.01 0.03 0.04 0.06 0.09 0.11 0.12 0.15
0.02 0.04 0.06 0.09 0.09 0.07 0.06 0.07 0.05 0.05 0.03 0.01 0.01 0.01 0.01 0.01 0.02 0.04 0.08 0.09 0.12 0.15
0.03 0.05 0.06 0.05 0.06 0.07 0.06 0.04 0.05 0.03 0.01 0.01 0.01 0.00 0.00 0.01 0.01 0.02 0.04 0.07 0.09 0.10
0.03 0.04 0.06 0.04 0.03 0.02 0.02 0.02 0.01 0.00 0.00 0.00 0.00 0.00 0.00 0.00 0.00 0.00 0.02 0.04 0.08 0.09
0.02 0.04 0.04 0.03 0.02 0.01 0.01 0.01 0.00 0.00 0.00 0.00 0.00 0.00 0.00 0.00 0.00 0.00 0.00 0.01 0.05 0.07
0.00 0.00 0.00 0.00 0.00 0.00 0.01 0.00 0.01 0.00 0.00 0.00 0.00 0.00 0.00 0.00 0.00 0.00 0.00 0.00 0.02 0.03
0.01 0.01 0.00 0.00 0.00 0.01 0.02 0.01 0.00 0.00 0.00 0.00 0.00 0.00 0.00 0.00 0.00 0.00 0.00 0.00 0.00 0.01
0.01 0.01 0.01 0.01 0.01 0.01 0.01 0.00 0.01 0.01 0.00 0.00 0.00 0.00 0.00 0.00 0.00 0.00 0.00 0.00 0.00 0.00
0.02 0.02 0.01 0.02 0.01 0.01 0.01 0.02 0.03 0.03 0.04 0.02 0.01 0.00 0.00 0.00 0.00 0.00 0.00 0.00 0.00 0.00
0.03 0.06 0.05 0.05 0.03 0.03 0.04 0.05 0.08 0.06 0.03 0.01 0.00 0.00 0.00 0.00 0.00 0.00 0.00 0.00 0.00 0.00
0.09 0.23 0.27 0.17 0.21 0.08 0.08 0.08 0.04 0.01 0.00 0.00 0.00 0.00 0.00 0.00 0.00 0.00 0.00 0.00 0.00 0.01
0.35 0.44 0.36 0.18 0.27 0.16 0.08 0.04 0.01 0.00 0.00 0.00 0.00 0.00 0.00 0.00 0.00 0.00 0.00 0.00 0.01 0.05
0.63 0.42 0.22 0.05 0.02 0.03 0.02 0.01 0.00 0.00 0.00 0.00 0.00 0.00 0.00 0.00 0.01 0.01 0.00 0.02 0.02 0.03
0.29 0.22 0.07 0.02 0.01 0.01 0.00 0.00 0.00 0.00 0.00 0.00 0.00 0.00 0.00 0.00 0.02 0.03 0.14 0.11 0.03 0.03

GFSNIL_prec_precacc_063.txt.gz
Total_Precipitation_Accumulation
0.03 0.04 0.06 0.08 0.08 0.08 0.09 0.11 0.09 0.09 0.09 0.07 0.06 0.04 0.03 0.04 0.04 0.06 0.09 0.11 0.12 0.15
0.02 0.04 0.06 0.09 0.11 0.10 0.10 0.11 0.09 0.10 0.08 0.06 0.03 0.02 0.01 0.02 0.02 0.04 0.08 0.09 0.12 0.15
0.03 0.05 0.06 0.06 0.07 0.09 0.10 0.08 0.09 0.07 0.04 0.02 0.01 0.01 0.01 0.01 0.01 0.02 0.04 0.07 0.09 0.10
0.03 0.04 0.06 0.04 0.04 0.05 0.05 0.05 0.04 0.03 0.01 0.00 0.00 0.00 0.00 0.00 0.00 0.00 0.02 0.04 0.08 0.09
0.02 0.04 0.05 0.05 0.03 0.02 0.02 0.01 0.01 0.00 0.01 0.01 0.00 0.00 0.00 0.00 0.00 0.00 0.00 0.01 0.05 0.07
0.00 0.00 0.01 0.01 0.02 0.02 0.02 0.01 0.01 0.01 0.01 0.00 0.00 0.00 0.00 0.00 0.00 0.01 0.01 0.01 0.02 0.03
0.02 0.02 0.01 0.01 0.01 0.01 0.02 0.01 0.00 0.00 0.00 0.00 0.00 0.00 0.01 0.02 0.04 0.03 0.01 0.00 0.00 0.01
0.03 0.02 0.02 0.01 0.01 0.01 0.01 0.00 0.01 0.01 0.00 0.01 0.01 0.01 0.02 0.02 0.02 0.00 0.01 0.01 0.01 0.00
0.02 0.02 0.01 0.02 0.01 0.01 0.01 0.03 0.03 0.04 0.06 0.08 0.10 0.14 0.10 0.03 0.01 0.00 0.01 0.01 0.00 0.00
0.03 0.07 0.06 0.06 0.05 0.05 0.05 0.07 0.10 0.14 0.14 0.10 0.08 0.07 0.04 0.02 0.01 0.01 0.00 0.00 0.00 0.00
0.13 0.26 0.30 0.26 0.30 0.14 0.15 0.15 0.17 0.19 0.21 0.16 0.09 0.03 0.01 0.00 0.00 0.00 0.00 0.00 0.00 0.01
0.38 0.51 0.47 0.30 0.47 0.43 0.29 0.28 0.23 0.17 0.11 0.04 0.00 0.00 0.00 0.00 0.00 0.00 0.00 0.00 0.01 0.05
0.69 0.56 0.44 0.22 0.37 0.43 0.28 0.14 0.08 0.04 0.02 0.00 0.00 0.00 0.00 0.00 0.01 0.01 0.00 0.02 0.02 0.03
0.47 0.45 0.34 0.19 0.13 0.07 0.04 0.02 0.01 0.00 0.00 0.00 0.00 0.00 0.00 0.00 0.02 0.03 0.14 0.11 0.03 0.03

GFSNIL_prec_precacc_066.txt.gz
Total_Precipitation_Accumulation
0.03 0.04 0.07 0.08 0.08 0.10 0.13 0.14 0.14 0.13 0.14 0.12 0.12 0.09 0.06 0.06 0.05 0.07 0.10 0.11 0.12 0.15
0.02 0.04 0.06 0.09 0.11 0.11 0.11 0.13 0.16 0.16 0.14 0.11 0.07 0.05 0.03 0.03 0.03 0.05 0.08 0.09 0.12 0.15
0.03 0.05 0.06 0.06 0.07 0.09 0.11 0.09 0.12 0.11 0.09 0.06 0.04 0.02 0.01 0.01 0.01 0.02 0.04 0.07 0.09 0.10
0.03 0.04 0.06 0.04 0.04 0.05 0.05 0.05 0.05 0.05 0.05 0.04 0.02 0.01 0.00 0.00 0.00 0.00 0.02 0.04 0.08 0.09
0.02 0.04 0.05 0.05 0.03 0.03 0.03 0.02 0.01 0.01 0.01 0.01 0.01 0.01 0.01 0.02 0.02 0.02 0.01 0.01 0.05 0.07
0.00 0.00 0.01 0.01 0.02 0.03 0.03 0.01 0.01 0.01 0.01 0.00 0.00 0.00 0.00 0.01 0.02 0.03 0.03 0.03 0.06 0.06
0.02 0.02 0.01 0.01 0.01 0.02 0.02 0.02 0.01 0.01 0.00 0.00 0.00 0.00 0.01 0.02 0.05 0.06 0.05 0.05 0.06 0.06
0.03 0.02 0.02 0.01 0.01 0.01 0.01 0.00 0.01 0.01 0.01 0.01 0.01 0.03 0.04 0.06 0.08 0.06 0.06 0.05 0.04 0.04
0.02 0.02 0.02 0.02 0.01 0.01 0.02 0.03 0.04 0.05 0.06 0.09 0.12 0.19 0.18 0.13 0.10 0.09 0.07 0.06 0.04 0.02
0.04 0.10 0.08 0.07 0.05 0.05 0.05 0.07 0.11 0.15 0.16 0.16 0.18 0.22 0.17 0.14 0.11 0.10 0.09 0.05 0.02 0.00
0.18 0.30 0.49 0.35 0.38 0.17 0.16 0.16 0.22 0.26 0.30 0.32 0.27 0.21 0.13 0.08 0.06 0.04 0.01 0.00 0.00 0.01
0.44 0.54 0.48 0.31 0.48 0.44 0.34 0.39 0.34 0.31 0.24 0.15 0.10 0.08 0.04 0.02 0.01 0.00 0.00 0.00 0.01 0.05
0.70 0.56 0.44 0.23 0.40 0.49 0.38 0.25 0.19 0.14 0.10 0.08 0.04 0.02 0.01 0.01 0.01 0.01 0.00 0.02 0.02 0.03
0.47 0.46 0.36 0.27 0.26 0.20 0.15 0.09 0.05 0.03 0.02 0.01 0.01 0.00 0.00 0.00 0.02 0.03 0.14 0.11 0.03 0.03

GFSNIL_prec_precacc_069.txt.gz
Total_Precipitation_Accumulation
0.03 0.04 0.07 0.08 0.08 0.10 0.14 0.15 0.16 0.18 0.23 0.21 0.19 0.15 0.10 0.10 0.09 0.10 0.12 0.13 0.13 0.16
0.02 0.04 0.06 0.09 0.11 0.11 0.11 0.14 0.18 0.19 0.20 0.19 0.16 0.13 0.09 0.07 0.05 0.06 0.09 0.10 0.12 0.15
0.03 0.05 0.06 0.06 0.07 0.09 0.11 0.09 0.12 0.11 0.10 0.10 0.09 0.08 0.07 0.04 0.02 0.02 0.04 0.07 0.09 0.10
0.03 0.04 0.06 0.04 0.04 0.05 0.05 0.05 0.05 0.05 0.05 0.04 0.03 0.02 0.02 0.01 0.00 0.00 0.02 0.04 0.08 0.10
0.02 0.04 0.05 0.05 0.03 0.03 0.03 0.02 0.01 0.01 0.01 0.01 0.01 0.01 0.01 0.02 0.02 0.02 0.03 0.05 0.12 0.15
0.00 0.00 0.01 0.01 0.02 0.03 0.03 0.01 0.01 0.01 0.01 0.00 0.00 0.00 0.00 0.01 0.03 0.04 0.06 0.09 0.13 0.14
0.02 0.02 0.01 0.01 0.01 0.02 0.02 0.02 0.01 0.01 0.00 0.00 0.00 0.00 0.01 0.02 0.05 0.06 0.07 0.08 0.11 0.14
0.03 0.02 0.02 0.01 0.01 0.01 0.02 0.01 0.01 0.02 0.02 0.01 0.01 0.03 0.05 0.07 0.10 0.14 0.16 0.19 0.19 0.16
0.03 0.02 0.02 0.02 0.01 0.01 0.02 0.03 0.06 0.08 0.09 0.11 0.13 0.21 0.19 0.15 0.14 0.17 0.20 0.17 0.12 0.08
0.04 0.10 0.09 0.10 0.07 0.06 0.06 0.08 0.12 0.19 0.23 0.25 0.24 0.27 0.24 0.20 0.17 0.16 0.12 0.09 0.07 0.04
0.18 0.31 0.55 0.45 0.42 0.38 0.26 0.19 0.22 0.26 0.30 0.34 0.31 0.27 0.18 0.14 0.13 0.10 0.07 0.04 0.01 0.01
0.44 0.54 0.49 0.31 0.49 0.48 0.37 0.41 0.41 0.36 0.30 0.23 0.14 0.09 0.08 0.07 0.06 0.04 0.02 0.01 0.01 0.05
0.70 0.56 0.44 0.23 0.40 0.50 0.38 0.28 0.25 0.21 0.14 0.10 0.07 0.05 0.03 0.03 0.03 0.02 0.01 0.02 0.02 0.03
0.47 0.46 0.36 0.28 0.30 0.27 0.24 0.14 0.10 0.09 0.05 0.03 0.02 0.01 0.00 0.01 0.02 0.03 0.14 0.11 0.03 0.03

GFSNIL_prec_precacc_072.txt.gz
Total_Precipitation_Accumulation
0.03 0.04 0.07 0.08 0.08 0.10 0.14 0.15 0.16 0.18 0.23 0.24 0.24 0.20 0.16 0.15 0.14 0.14 0.16 0.15 0.14 0.16
0.02 0.04 0.06 0.09 0.11 0.11 0.11 0.14 0.18 0.20 0.20 0.21 0.20 0.19 0.17 0.15 0.12 0.11 0.13 0.12 0.12 0.15
0.03 0.05 0.06 0.06 0.07 0.09 0.11 0.10 0.12 0.11 0.10 0.10 0.10 0.10 0.10 0.10 0.10 0.09 0.11 0.11 0.09 0.10
0.03 0.04 0.06 0.04 0.04 0.05 0.05 0.05 0.05 0.05 0.05 0.04 0.03 0.02 0.02 0.02 0.02 0.02 0.06 0.12 0.16 0.18
0.02 0.04 0.05 0.05 0.03 0.03 0.03 0.02 0.01 0.01 0.01 0.01 0.01 0.01 0.01 0.02 0.02 0.02 0.03 0.06 0.14 0.19
0.00 0.00 0.01 0.01 0.02 0.03 0.03 0.01 0.01 0.01 0.01 0.00 0.00 0.00 0.00 0.01 0.03 0.05 0.07 0.09 0.14 0.16
0.02 0.02 0.01 0.01 0.01 0.02 0.02 0.02 0.01 0.01 0.01 0.00 0.00 0.01 0.02 0.03 0.06 0.07 0.07 0.08 0.12 0.17
0.03 0.02 0.02 0.02 0.01 0.01 0.02 0.01 0.01 0.02 0.02 0.02 0.02 0.05 0.07 0.08 0.10 0.14 0.17 0.21 0.23 0.21
0.03 0.02 0.02 0.02 0.01 0.01 0.02 0.03 0.07 0.10 0.13 0.14 0.17 0.26 0.23 0.19 0.17 0.17 0.20 0.20 0.15 0.10
0.05 0.10 0.09 0.10 0.07 0.06 0.06 0.08 0.13 0.22 0.34 0.44 0.55 0.60 0.44 0.30 0.26 0.20 0.14 0.10 0.07 0.05
0.18 0.31 0.55 0.45 0.42 0.38 0.31 0.24 0.27 0.29 0.31 0.41 0.43 0.37 0.25 0.18 0.14 0.11 0.07 0.04 0.02 0.02
0.44 0.54 0.49 0.31 0.49 0.48 0.39 0.43 0.48 0.45 0.36 0.30 0.21 0.14 0.10 0.07 0.06 0.05 0.03 0.01 0.01 0.05
0.70 0.56 0.44 0.23 0.40 0.50 0.38 0.29 0.30 0.28 0.20 0.13 0.08 0.06 0.04 0.04 0.04 0.03 0.01 0.02 0.02 0.03
0.47 0.46 0.36 0.28 0.30 0.28 0.26 0.16 0.11 0.12 0.08 0.04 0.02 0.01 0.00 0.01 0.02 0.03 0.14 0.11 0.03 0.03

GFSNIL_prec_precacc_075.txt.gz
Total_Precipitation_Accumulation
0.03 0.04 0.07 0.08 0.08 0.10 0.14 0.15 0.16 0.18 0.24 0.24 0.24 0.21 0.17 0.17 0.16 0.17 0.20 0.19 0.16 0.18
0.02 0.04 0.06 0.09 0.11 0.11 0.12 0.15 0.18 0.20 0.21 0.21 0.20 0.20 0.18 0.17 0.15 0.15 0.17 0.16 0.17 0.21
0.03 0.05 0.06 0.06 0.07 0.09 0.11 0.10 0.12 0.12 0.11 0.11 0.10 0.10 0.11 0.12 0.12 0.13 0.16 0.21 0.26 0.28
0.03 0.04 0.06 0.04 0.04 0.05 0.05 0.05 0.05 0.06 0.06 0.05 0.04 0.03 0.03 0.05 0.06 0.08 0.12 0.16 0.22 0.27
0.02 0.04 0.05 0.05 0.03 0.03 0.03 0.02 0.01 0.01 0.01 0.01 0.01 0.01 0.02 0.03 0.04 0.04 0.05 0.08 0.16 0.21
0.00 0.00 0.01 0.01 0.02 0.03 0.03 0.01 0.01 0.01 0.01 0.00 0.00 0.00 0.00 0.01 0.04 0.06 0.08 0.11 0.16 0.17
0.02 0.02 0.01 0.01 0.01 0.02 0.02 0.02 0.01 0.01 0.01 0.00 0.00 0.01 0.02 0.04 0.07 0.09 0.09 0.10 0.13 0.17
0.03 0.02 0.02 0.02 0.01 0.01 0.02 0.01 0.01 0.02 0.02 0.02 0.02 0.05 0.07 0.08 0.12 0.16 0.18 0.22 0.24 0.22
0.03 0.02 0.02 0.02 0.01 0.01 0.02 0.03 0.07 0.10 0.13 0.14 0.17 0.29 0.26 0.24 0.23 0.25 0.28 0.28 0.21 0.12
0.05 0.10 0.09 0.10 0.07 0.06 0.06 0.08 0.13 0.22 0.35 0.54 0.70 0.79 0.73 0.64 0.57 0.47 0.31 0.20 0.12 0.07
0.18 0.31 0.55 0.45 0.42 0.38 0.31 0.24 0.27 0.30 0.32 0.41 0.46 0.40 0.30 0.24 0.18 0.12 0.08 0.05 0.02 0.02
0.44 0.54 0.49 0.31 0.49 0.48 0.39 0.43 0.48 0.46 0.37 0.30 0.21 0.14 0.10 0.07 0.06 0.05 0.03 0.01 0.01 0.05
0.70 0.56 0.44 0.23 0.40 0.50 0.38 0.29 0.30 0.29 0.20 0.14 0.08 0.06 0.04 0.04 0.05 0.03 0.01 0.02 0.02 0.03
0.47 0.46 0.36 0.28 0.30 0.28 0.26 0.16 0.11 0.12 0.08 0.04 0.02 0.01 0.00 0.01 0.02 0.03 0.14 0.11 0.03 0.03

GFSNIL_prec_precacc_078.txt.gz
Total_Precipitation_Accumulation
0.03 0.04 0.07 0.08 0.08 0.10 0.14 0.15 0.16 0.18 0.24 0.25 0.25 0.22 0.18 0.19 0.18 0.20 0.24 0.24 0.20 0.19
0.02 0.04 0.06 0.09 0.11 0.11 0.12 0.15 0.18 0.20 0.21 0.21 0.21 0.21 0.20 0.19 0.17 0.18 0.21 0.21 0.22 0.24
0.03 0.05 0.06 0.06 0.07 0.09 0.11 0.10 0.12 0.12 0.12 0.12 0.11 0.11 0.13 0.15 0.16 0.19 0.21 0.27 0.32 0.34
0.03 0.04 0.06 0.04 0.04 0.05 0.05 0.05 0.05 0.06 0.06 0.05 0.04 0.03 0.04 0.07 0.09 0.13 0.18 0.22 0.29 0.33
0.02 0.04 0.05 0.05 0.03 0.03 0.03 0.02 0.01 0.01 0.01 0.01 0.01 0.01 0.02 0.03 0.04 0.05 0.06 0.10 0.19 0.26
0.00 0.00 0.01 0.01 0.02 0.03 0.03 0.01 0.01 0.01 0.01 0.00 0.00 0.00 0.00 0.01 0.04 0.06 0.08 0.12 0.18 0.19
0.02 0.02 0.01 0.01 0.01 0.02 0.02 0.02 0.01 0.01 0.01 0.00 0.00 0.01 0.02 0.04 0.07 0.09 0.09 0.10 0.13 0.18
0.03 0.02 0.02 0.02 0.01 0.01 0.02 0.01 0.01 0.02 0.02 0.02 0.02 0.05 0.07 0.08 0.12 0.16 0.19 0.22 0.26 0.26
0.03 0.02 0.02 0.02 0.01 0.01 0.02 0.03 0.07 0.10 0.13 0.14 0.17 0.29 0.26 0.24 0.26 0.30 0.33 0.34 0.31 0.26
0.05 0.10 0.09 0.10 0.07 0.06 0.06 0.08 0.13 0.22 0.35 0.54 0.70 0.79 0.74 0.65 0.64 0.65 0.52 0.33 0.22 0.12
0.18 0.31 0.55 0.45 0.42 0.38 0.31 0.24 0.27 0.30 0.32 0.41 0.46 0.40 0.30 0.24 0.18 0.13 0.09 0.05 0.02 0.02
0.44 0.54 0.49 0.31 0.49 0.48 0.39 0.43 0.48 0.46 0.37 0.30 0.21 0.14 0.10 0.07 0.06 0.05 0.03 0.01 0.01 0.05
0.70 0.56 0.44 0.23 0.40 0.50 0.38 0.29 0.30 0.29 0.20 0.14 0.08 0.06 0.04 0.04 0.05 0.03 0.01 0.02 0.02 0.03
0.47 0.46 0.36 0.28 0.30 0.28 0.26 0.16 0.11 0.12 0.08 0.04 0.02 0.01 0.00 0.01 0.02 0.03 0.14 0.11 0.03 0.03

GFSNIL_prec_precacc_081.txt.gz
Total_Precipitation_Accumulation
0.03 0.04 0.07 0.08 0.08 0.10 0.14 0.15 0.16 0.18 0.24 0.25 0.25 0.23 0.19 0.21 0.20 0.23 0.30 0.31 0.28 0.24
0.02 0.04 0.06 0.09 0.11 0.11 0.12 0.15 0.18 0.20 0.21 0.21 0.21 0.21 0.20 0.20 0.18 0.19 0.24 0.26 0.29 0.32
0.03 0.05 0.06 0.06 0.07 0.09 0.11 0.10 0.12 0.12 0.12 0.12 0.11 0.12 0.13 0.15 0.17 0.19 0.22 0.29 0.36 0.41
0.03 0.04 0.06 0.04 0.04 0.05 0.05 0.05 0.05 0.06 0.06 0.05 0.04 0.04 0.05 0.07 0.09 0.14 0.19 0.24 0.32 0.37
0.02 0.04 0.05 0.05 0.03 0.03 0.03 0.02 0.01 0.01 0.01 0.01 0.01 0.01 0.02 0.03 0.04 0.05 0.07 0.11 0.20 0.27
0.00 0.00 0.01 0.01 0.02 0.03 0.03 0.01 0.01 0.01 0.01 0.00 0.00 0.00 0.00 0.01 0.04 0.06 0.08 0.12 0.18 0.19
0.02 0.02 0.01 0.01 0.01 0.02 0.02 0.02 0.01 0.01 0.01 0.00 0.00 0.01 0.02 0.04 0.07 0.09 0.09 0.10 0.13 0.18
0.03 0.02 0.02 0.02 0.01 0.01 0.02 0.01 0.01 0.02 0.02 0.02 0.02 0.05 0.07 0.08 0.12 0.16 0.19 0.22 0.26 0.26
0.03 0.02 0.02 0.02 0.01 0.01 0.02 0.03 0.07 0.10 0.13 0.14 0.17 0.29 0.26 0.24 0.26 0.30 0.33 0.34 0.31 0.28
0.05 0.10 0.09 0.10 0.07 0.06 0.06 0.08 0.13 0.22 0.35 0.54 0.70 0.79 0.74 0.65 0.64 0.65 0.52 0.33 0.23 0.14
0.18 0.31 0.55 0.45 0.42 0.38 0.31 0.24 0.27 0.30 0.32 0.41 0.46 0.40 0.30 0.24 0.18 0.13 0.09 0.05 0.02 0.02
0.44 0.54 0.49 0.31 0.49 0.48 0.39 0.43 0.48 0.46 0.37 0.30 0.21 0.14 0.10 0.07 0.06 0.05 0.03 0.01 0.01 0.05
0.70 0.56 0.44 0.23 0.40 0.50 0.38 0.29 0.30 0.29 0.20 0.14 0.08 0.06 0.04 0.04 0.05 0.03 0.01 0.02 0.02 0.03
0.48 0.46 0.36 0.28 0.30 0.28 0.26 0.16 0.11 0.12 0.08 0.04 0.02 0.01 0.00 0.01 0.02 0.03 0.14 0.11 0.03 0.03

GFSNIL_prec_precacc_084.txt.gz
Total_Precipitation_Accumulation
0.03 0.04 0.07 0.08 0.08 0.10 0.14 0.15 0.16 0.19 0.25 0.26 0.25 0.23 0.20 0.21 0.21 0.25 0.34 0.37 0.32 0.27
0.02 0.04 0.06 0.09 0.11 0.11 0.12 0.15 0.18 0.20 0.21 0.22 0.21 0.21 0.20 0.20 0.18 0.19 0.24 0.26 0.30 0.33
0.03 0.05 0.06 0.06 0.07 0.09 0.11 0.10 0.12 0.12 0.12 0.12 0.11 0.12 0.13 0.15 0.17 0.20 0.23 0.30 0.36 0.42
0.03 0.04 0.06 0.04 0.04 0.05 0.05 0.05 0.05 0.06 0.06 0.05 0.04 0.04 0.05 0.07 0.09 0.15 0.19 0.24 0.32 0.38
0.02 0.04 0.05 0.05 0.03 0.03 0.03 0.02 0.01 0.01 0.01 0.01 0.01 0.01 0.02 0.03 0.04 0.06 0.07 0.11 0.20 0.27
0.00 0.00 0.01 0.01 0.02 0.03 0.03 0.01 0.01 0.01 0.01 0.00 0.00 0.00 0.00 0.02 0.04 0.06 0.09 0.12 0.18 0.19
0.02 0.02 0.01 0.01 0.01 0.02 0.02 0.02 0.01 0.01 0.01 0.00 0.00 0.01 0.02 0.04 0.07 0.09 0.09 0.10 0.13 0.18
0.03 0.02 0.02 0.02 0.01 0.01 0.02 0.01 0.01 0.02 0.02 0.02 0.02 0.05 0.07 0.08 0.12 0.16 0.19 0.22 0.26 0.27
0.03 0.02 0.02 0.02 0.01 0.01 0.02 0.03 0.07 0.10 0.13 0.14 0.17 0.29 0.26 0.24 0.26 0.30 0.33 0.34 0.31 0.29
0.05 0.10 0.09 0.10 0.07 0.06 0.06 0.08 0.13 0.22 0.35 0.54 0.70 0.79 0.74 0.65 0.64 0.65 0.52 0.33 0.23 0.14
0.18 0.31 0.55 0.45 0.42 0.39 0.31 0.24 0.27 0.30 0.32 0.41 0.46 0.41 0.30 0.24 0.18 0.13 0.09 0.05 0.02 0.02
0.44 0.54 0.49 0.31 0.49 0.48 0.39 0.43 0.48 0.46 0.37 0.30 0.21 0.14 0.10 0.07 0.06 0.05 0.03 0.01 0.01 0.05
0.70 0.56 0.45 0.23 0.40 0.50 0.38 0.29 0.30 0.29 0.20 0.14 0.08 0.06 0.04 0.04 0.05 0.03 0.01 0.02 0.02 0.03
0.48 0.47 0.37 0.28 0.30 0.28 0.26 0.16 0.11 0.12 0.08 0.04 0.02 0.01 0.00 0.01 0.02 0.03 0.14 0.11 0.03 0.03

GFSNIL_prec_precacc_087.txt.gz
Total_Precipitation_Accumulation
0.03 0.04 0.07 0.08 0.08 0.10 0.14 0.15 0.16 0.19 0.25 0.26 0.26 0.23 0.20 0.22 0.22 0.26 0.36 0.39 0.34 0.28
0.02 0.04 0.06 0.09 0.11 0.11 0.12 0.15 0.18 0.20 0.21 0.22 0.21 0.21 0.20 0.20 0.18 0.19 0.24 0.27 0.30 0.33
0.03 0.05 0.06 0.06 0.07 0.09 0.11 0.10 0.12 0.12 0.12 0.12 0.11 0.12 0.13 0.15 0.17 0.20 0.23 0.30 0.36 0.42
0.03 0.04 0.06 0.04 0.04 0.05 0.05 0.05 0.05 0.06 0.06 0.05 0.04 0.04 0.05 0.07 0.09 0.15 0.20 0.24 0.33 0.38
0.02 0.04 0.05 0.05 0.03 0.03 0.03 0.02 0.01 0.01 0.01 0.01 0.01 0.01 0.02 0.03 0.04 0.06 0.07 0.11 0.20 0.27
0.00 0.00 0.01 0.01 0.02 0.03 0.03 0.01 0.01 0.01 0.01 0.00 0.00 0.00 0.00 0.02 0.04 0.06 0.09 0.12 0.18 0.19
0.02 0.02 0.01 0.01 0.01 0.02 0.02 0.02 0.01 0.01 0.01 0.00 0.00 0.01 0.02 0.04 0.07 0.09 0.09 0.10 0.13 0.18
0.03 0.02 0.02 0.02 0.01 0.01 0.02 0.01 0.01 0.02 0.02 0.02 0.02 0.05 0.07 0.08 0.12 0.16 0.19 0.22 0.26 0.27
0.03 0.02 0.02 0.02 0.01 0.01 0.02 0.03 0.07 0.10 0.13 0.14 0.17 0.29 0.26 0.24 0.26 0.30 0.33 0.34 0.31 0.29
0.05 0.10 0.09 0.10 0.07 0.06 0.06 0.08 0.13 0.22 0.35 0.54 0.70 0.79 0.74 0.65 0.64 0.65 0.52 0.33 0.23 0.14
0.18 0.31 0.55 0.45 0.42 0.39 0.31 0.24 0.27 0.30 0.32 0.41 0.46 0.41 0.30 0.24 0.18 0.13 0.09 0.05 0.02 0.02
0.44 0.54 0.49 0.31 0.49 0.48 0.39 0.43 0.48 0.46 0.37 0.30 0.21 0.14 0.10 0.07 0.06 0.05 0.03 0.01 0.01 0.05
0.70 0.56 0.45 0.23 0.40 0.50 0.38 0.29 0.30 0.29 0.20 0.14 0.08 0.06 0.04 0.04 0.05 0.03 0.01 0.02 0.02 0.03
0.48 0.47 0.37 0.28 0.30 0.28 0.26 0.16 0.11 0.12 0.08 0.04 0.02 0.01 0.00 0.01 0.02 0.03 0.14 0.11 0.03 0.03

GFSNIL_prec_precacc_090.txt.gz
Total_Precipitation_Accumulation
0.03 0.04 0.07 0.08 0.08 0.10 0.14 0.15 0.16 0.19 0.25 0.26 0.26 0.23 0.20 0.22 0.22 0.26 0.36 0.39 0.34 0.28
0.02 0.04 0.06 0.09 0.11 0.11 0.12 0.15 0.18 0.20 0.21 0.22 0.21 0.21 0.20 0.20 0.18 0.19 0.24 0.27 0.30 0.33
0.03 0.05 0.06 0.06 0.07 0.09 0.11 0.10 0.12 0.12 0.12 0.12 0.11 0.12 0.14 0.16 0.17 0.20 0.23 0.30 0.36 0.42
0.03 0.04 0.06 0.04 0.04 0.05 0.05 0.05 0.05 0.06 0.06 0.05 0.04 0.04 0.05 0.07 0.09 0.15 0.20 0.24 0.33 0.38
0.02 0.04 0.05 0.05 0.03 0.03 0.03 0.02 0.01 0.01 0.01 0.01 0.01 0.01 0.02 0.03 0.04 0.06 0.07 0.11 0.20 0.27
0.00 0.00 0.01 0.01 0.02 0.03 0.03 0.01 0.01 0.01 0.01 0.00 0.00 0.00 0.00 0.02 0.04 0.06 0.09 0.12 0.18 0.19
0.02 0.02 0.01 0.01 0.01 0.02 0.02 0.02 0.01 0.01 0.01 0.00 0.00 0.01 0.02 0.04 0.07 0.09 0.09 0.10 0.13 0.18
0.03 0.02 0.02 0.02 0.01 0.01 0.02 0.01 0.01 0.02 0.02 0.02 0.02 0.05 0.07 0.08 0.12 0.16 0.19 0.22 0.26 0.27
0.03 0.02 0.02 0.02 0.01 0.01 0.02 0.03 0.07 0.10 0.13 0.14 0.17 0.30 0.26 0.24 0.26 0.30 0.33 0.34 0.31 0.29
0.05 0.10 0.09 0.10 0.07 0.06 0.06 0.08 0.13 0.22 0.35 0.54 0.70 0.79 0.74 0.66 0.64 0.65 0.52 0.33 0.23 0.14
0.18 0.31 0.55 0.45 0.42 0.39 0.31 0.24 0.27 0.30 0.32 0.41 0.46 0.41 0.30 0.24 0.18 0.13 0.09 0.05 0.02 0.02
0.44 0.54 0.49 0.31 0.49 0.48 0.39 0.44 0.48 0.46 0.37 0.30 0.21 0.14 0.10 0.07 0.06 0.05 0.03 0.01 0.01 0.05
0.70 0.56 0.45 0.23 0.40 0.50 0.39 0.29 0.30 0.29 0.20 0.14 0.08 0.06 0.04 0.04 0.05 0.03 0.01 0.02 0.02 0.03
0.48 0.47 0.37 0.28 0.30 0.28 0.26 0.16 0.12 0.12 0.08 0.04 0.02 0.01 0.00 0.01 0.02 0.03 0.14 0.11 0.03 0.03

GFSNIL_prec_precacc_093.txt.gz
Total_Precipitation_Accumulation
0.06 0.05 0.07 0.09 0.08 0.10 0.14 0.15 0.16 0.19 0.25 0.26 0.26 0.23 0.20 0.22 0.22 0.26 0.36 0.39 0.34 0.28
0.03 0.05 0.06 0.09 0.11 0.11 0.12 0.15 0.18 0.20 0.21 0.22 0.21 0.21 0.20 0.20 0.18 0.19 0.24 0.27 0.30 0.33
0.03 0.05 0.06 0.06 0.07 0.09 0.11 0.10 0.12 0.12 0.12 0.12 0.11 0.12 0.14 0.16 0.17 0.20 0.23 0.30 0.36 0.42
0.03 0.04 0.06 0.04 0.04 0.05 0.05 0.05 0.05 0.06 0.06 0.05 0.04 0.04 0.05 0.08 0.10 0.16 0.20 0.24 0.33 0.38
0.02 0.04 0.05 0.05 0.03 0.03 0.03 0.02 0.01 0.01 0.01 0.01 0.01 0.01 0.02 0.03 0.05 0.07 0.07 0.11 0.20 0.27
0.00 0.00 0.01 0.01 0.02 0.03 0.03 0.01 0.01 0.01 0.01 0.00 0.00 0.00 0.00 0.02 0.04 0.06 0.09 0.12 0.18 0.19
0.02 0.02 0.01 0.01 0.01 0.02 0.02 0.02 0.01 0.01 0.01 0.00 0.00 0.01 0.02 0.04 0.07 0.09 0.09 0.10 0.13 0.18
0.03 0.02 0.02 0.02 0.01 0.01 0.02 0.01 0.01 0.02 0.02 0.02 0.02 0.05 0.07 0.08 0.12 0.16 0.19 0.22 0.26 0.27
0.03 0.02 0.02 0.02 0.01 0.01 0.02 0.03 0.07 0.10 0.13 0.14 0.17 0.30 0.26 0.24 0.26 0.30 0.33 0.34 0.31 0.29
0.05 0.10 0.09 0.10 0.07 0.06 0.06 0.08 0.13 0.22 0.35 0.54 0.70 0.79 0.74 0.66 0.64 0.65 0.52 0.33 0.23 0.14
0.18 0.31 0.55 0.45 0.42 0.39 0.31 0.24 0.27 0.30 0.32 0.41 0.46 0.41 0.30 0.24 0.18 0.13 0.09 0.05 0.02 0.02
0.44 0.54 0.49 0.31 0.49 0.48 0.39 0.44 0.48 0.46 0.37 0.30 0.21 0.15 0.10 0.07 0.06 0.05 0.03 0.01 0.01 0.05
0.70 0.56 0.45 0.23 0.40 0.50 0.39 0.30 0.30 0.29 0.20 0.14 0.08 0.06 0.04 0.04 0.05 0.03 0.01 0.02 0.02 0.03
0.48 0.47 0.37 0.28 0.30 0.28 0.26 0.16 0.12 0.13 0.08 0.04 0.02 0.01 0.00 0.01 0.02 0.03 0.14 0.11 0.03 0.03

GFSNIL_prec_precacc_096.txt.gz
Total_Precipitation_Accumulation
0.12 0.11 0.14 0.17 0.17 0.18 0.21 0.21 0.20 0.21 0.27 0.28 0.29 0.26 0.21 0.22 0.22 0.26 0.36 0.39 0.34 0.28
0.08 0.08 0.10 0.13 0.14 0.15 0.14 0.16 0.19 0.20 0.21 0.22 0.21 0.21 0.20 0.20 0.18 0.19 0.24 0.27 0.30 0.33
0.05 0.07 0.08 0.07 0.07 0.09 0.11 0.10 0.12 0.12 0.12 0.12 0.11 0.12 0.14 0.16 0.17 0.20 0.23 0.30 0.36 0.42
0.03 0.04 0.06 0.04 0.04 0.05 0.05 0.05 0.05 0.06 0.06 0.05 0.04 0.04 0.05 0.08 0.10 0.16 0.21 0.25 0.33 0.38
0.02 0.04 0.05 0.05 0.03 0.03 0.03 0.02 0.01 0.01 0.01 0.01 0.01 0.01 0.02 0.03 0.05 0.07 0.09 0.13 0.22 0.27
0.00 0.00 0.01 0.01 0.02 0.03 0.03 0.01 0.01 0.01 0.01 0.00 0.00 0.00 0.00 0.02 0.04 0.06 0.09 0.13 0.18 0.19
0.02 0.02 0.01 0.01 0.01 0.02 0.02 0.02 0.01 0.01 0.01 0.00 0.00 0.01 0.02 0.04 0.07 0.09 0.09 0.10 0.13 0.18
0.03 0.02 0.02 0.02 0.01 0.01 0.02 0.01 0.01 0.02 0.02 0.02 0.02 0.05 0.07 0.08 0.12 0.16 0.19 0.22 0.26 0.27
0.03 0.02 0.02 0.02 0.01 0.01 0.02 0.03 0.07 0.10 0.13 0.14 0.17 0.30 0.26 0.24 0.26 0.30 0.33 0.34 0.31 0.29
0.05 0.10 0.09 0.10 0.07 0.06 0.06 0.08 0.13 0.22 0.35 0.54 0.70 0.79 0.74 0.66 0.64 0.65 0.52 0.33 0.23 0.14
0.18 0.31 0.55 0.45 0.42 0.39 0.31 0.24 0.27 0.30 0.32 0.41 0.46 0.42 0.31 0.25 0.18 0.13 0.09 0.05 0.02 0.02
0.44 0.54 0.49 0.31 0.49 0.48 0.39 0.44 0.48 0.46 0.37 0.30 0.22 0.15 0.11 0.08 0.06 0.05 0.03 0.01 0.01 0.05
0.70 0.56 0.45 0.23 0.40 0.50 0.39 0.30 0.30 0.29 0.20 0.14 0.08 0.06 0.04 0.04 0.05 0.03 0.01 0.02 0.02 0.03
0.48 0.47 0.37 0.28 0.30 0.28 0.26 0.16 0.12 0.13 0.08 0.04 0.02 0.01 0.00 0.01 0.02 0.03 0.14 0.11 0.03 0.03

GFSNIL_prec_precacc_099.txt.gz
Total_Precipitation_Accumulation
0.17 0.18 0.20 0.26 0.27 0.32 0.36 0.38 0.35 0.26 0.30 0.33 0.36 0.31 0.25 0.26 0.30 0.33 0.41 0.43 0.36 0.29
0.10 0.16 0.16 0.16 0.18 0.19 0.19 0.22 0.26 0.26 0.24 0.23 0.24 0.25 0.23 0.22 0.20 0.20 0.25 0.27 0.30 0.33
0.07 0.10 0.10 0.09 0.09 0.12 0.13 0.11 0.13 0.12 0.12 0.12 0.11 0.12 0.14 0.16 0.18 0.20 0.23 0.30 0.37 0.43
0.03 0.05 0.07 0.05 0.05 0.06 0.06 0.06 0.05 0.06 0.06 0.05 0.04 0.04 0.05 0.08 0.10 0.16 0.21 0.26 0.33 0.39
0.02 0.04 0.05 0.05 0.03 0.03 0.03 0.02 0.01 0.01 0.01 0.01 0.01 0.01 0.02 0.03 0.05 0.07 0.09 0.13 0.22 0.28
0.00 0.00 0.01 0.01 0.02 0.03 0.03 0.01 0.01 0.01 0.01 0.00 0.00 0.00 0.00 0.02 0.04 0.06 0.09 0.13 0.19 0.20
0.02 0.02 0.01 0.01 0.01 0.02 0.02 0.02 0.01 0.01 0.01 0.00 0.00 0.01 0.02 0.04 0.07 0.09 0.09 0.10 0.13 0.18
0.03 0.02 0.02 0.02 0.01 0.01 0.02 0.01 0.01 0.02 0.02 0.02 0.02 0.05 0.07 0.08 0.12 0.16 0.19 0.22 0.26 0.27
0.03 0.02 0.02 0.02 0.01 0.01 0.02 0.03 0.07 0.10 0.13 0.14 0.17 0.30 0.26 0.24 0.26 0.30 0.33 0.34 0.31 0.29
0.05 0.10 0.09 0.10 0.07 0.06 0.06 0.08 0.13 0.22 0.35 0.54 0.70 0.79 0.74 0.66 0.64 0.65 0.52 0.33 0.23 0.14
0.18 0.31 0.55 0.45 0.42 0.39 0.31 0.24 0.27 0.30 0.32 0.41 0.46 0.42 0.31 0.25 0.18 0.13 0.09 0.05 0.02 0.02
0.44 0.54 0.49 0.31 0.49 0.48 0.39 0.44 0.48 0.46 0.37 0.30 0.22 0.16 0.11 0.08 0.06 0.05 0.03 0.01 0.01 0.05
0.70 0.56 0.45 0.23 0.40 0.50 0.39 0.30 0.30 0.29 0.20 0.14 0.08 0.07 0.04 0.04 0.05 0.03 0.01 0.02 0.02 0.03
0.48 0.47 0.37 0.28 0.30 0.28 0.26 0.16 0.12 0.13 0.08 0.04 0.03 0.02 0.01 0.01 0.02 0.03 0.14 0.11 0.03 0.03

GFSNIL_prec_precacc_102.txt.gz
Total_Precipitation_Accumulation
0.17 0.19 0.22 0.28 0.29 0.35 0.42 0.47 0.55 0.63 0.55 0.41 0.39 0.32 0.26 0.26 0.31 0.34 0.45 0.47 0.40 0.31
0.16 0.24 0.19 0.21 0.19 0.19 0.19 0.23 0.29 0.37 0.47 0.40 0.34 0.32 0.27 0.23 0.21 0.22 0.27 0.28 0.30 0.33
0.11 0.22 0.19 0.16 0.12 0.16 0.15 0.13 0.15 0.13 0.12 0.13 0.14 0.15 0.16 0.18 0.18 0.21 0.23 0.31 0.38 0.43
0.05 0.08 0.09 0.08 0.09 0.11 0.10 0.08 0.08 0.08 0.08 0.06 0.05 0.04 0.05 0.08 0.10 0.16 0.21 0.26 0.34 0.39
0.02 0.04 0.05 0.06 0.04 0.03 0.03 0.02 0.01 0.01 0.01 0.01 0.01 0.01 0.02 0.03 0.05 0.07 0.09 0.13 0.22 0.29
0.00 0.00 0.01 0.01 0.02 0.03 0.03 0.01 0.01 0.01 0.01 0.00 0.00 0.00 0.00 0.02 0.04 0.06 0.09 0.13 0.19 0.20
0.02 0.02 0.01 0.01 0.01 0.02 0.02 0.02 0.01 0.01 0.01 0.00 0.00 0.01 0.02 0.04 0.07 0.09 0.09 0.10 0.13 0.19
0.03 0.02 0.02 0.02 0.01 0.01 0.02 0.01 0.01 0.02 0.02 0.02 0.02 0.05 0.07 0.08 0.12 0.16 0.19 0.22 0.26 0.27
0.03 0.02 0.02 0.02 0.01 0.01 0.02 0.03 0.07 0.10 0.13 0.14 0.17 0.30 0.26 0.24 0.26 0.30 0.33 0.34 0.31 0.29
0.05 0.10 0.09 0.10 0.07 0.06 0.06 0.08 0.13 0.22 0.35 0.54 0.70 0.79 0.74 0.66 0.64 0.65 0.52 0.33 0.23 0.15
0.18 0.31 0.55 0.45 0.42 0.39 0.31 0.24 0.27 0.30 0.32 0.41 0.46 0.42 0.31 0.25 0.18 0.13 0.09 0.05 0.02 0.02
0.44 0.54 0.49 0.31 0.49 0.48 0.39 0.44 0.48 0.46 0.37 0.30 0.22 0.16 0.11 0.08 0.06 0.05 0.04 0.01 0.01 0.05
0.70 0.56 0.45 0.23 0.40 0.50 0.39 0.30 0.30 0.29 0.20 0.14 0.08 0.07 0.05 0.04 0.05 0.03 0.01 0.02 0.02 0.03
0.48 0.47 0.37 0.28 0.30 0.28 0.26 0.16 0.12 0.13 0.08 0.04 0.03 0.02 0.01 0.01 0.02 0.03 0.14 0.11 0.03 0.03

GFSNIL_prec_precacc_105.txt.gz
Total_Precipitation_Accumulation
0.18 0.19 0.22 0.29 0.30 0.36 0.44 0.50 0.61 0.74 0.71 0.52 0.48 0.37 0.31 0.31 0.34 0.37 0.48 0.52 0.47 0.36
0.16 0.24 0.19 0.21 0.19 0.19 0.19 0.23 0.29 0.38 0.49 0.43 0.36 0.34 0.31 0.28 0.25 0.24 0.28 0.30 0.33 0.36
0.11 0.22 0.19 0.17 0.12 0.16 0.15 0.13 0.15 0.13 0.13 0.13 0.14 0.15 0.16 0.18 0.19 0.21 0.24 0.31 0.38 0.44
0.05 0.08 0.10 0.08 0.09 0.12 0.13 0.13 0.12 0.11 0.12 0.08 0.06 0.05 0.06 0.09 0.11 0.17 0.21 0.26 0.34 0.39
0.03 0.04 0.06 0.06 0.04 0.04 0.04 0.03 0.02 0.02 0.02 0.01 0.01 0.01 0.02 0.04 0.05 0.08 0.09 0.13 0.22 0.29
0.00 0.00 0.01 0.01 0.02 0.03 0.03 0.01 0.01 0.01 0.01 0.00 0.00 0.00 0.00 0.02 0.04 0.06 0.09 0.13 0.19 0.20
0.02 0.02 0.01 0.01 0.01 0.02 0.02 0.02 0.01 0.01 0.01 0.00 0.00 0.01 0.02 0.04 0.07 0.09 0.09 0.10 0.13 0.19
0.03 0.02 0.02 0.02 0.01 0.01 0.02 0.01 0.01 0.02 0.02 0.02 0.02 0.05 0.07 0.08 0.12 0.16 0.19 0.22 0.26 0.27
0.03 0.02 0.02 0.02 0.01 0.01 0.02 0.03 0.07 0.10 0.13 0.14 0.17 0.30 0.26 0.24 0.26 0.30 0.33 0.34 0.31 0.29
0.05 0.10 0.09 0.10 0.07 0.06 0.06 0.08 0.13 0.22 0.35 0.54 0.70 0.79 0.74 0.66 0.64 0.65 0.52 0.33 0.23 0.15
0.18 0.31 0.55 0.45 0.42 0.39 0.31 0.24 0.27 0.30 0.32 0.41 0.46 0.42 0.31 0.25 0.18 0.13 0.09 0.05 0.02 0.02
0.44 0.54 0.49 0.31 0.49 0.48 0.39 0.44 0.48 0.46 0.37 0.30 0.22 0.16 0.11 0.08 0.06 0.05 0.04 0.02 0.02 0.05
0.70 0.56 0.45 0.23 0.40 0.50 0.39 0.30 0.30 0.29 0.20 0.14 0.08 0.07 0.05 0.04 0.05 0.03 0.02 0.02 0.03 0.04
0.48 0.47 0.37 0.28 0.30 0.28 0.26 0.16 0.12 0.13 0.08 0.04 0.03 0.02 0.01 0.01 0.02 0.03 0.14 0.11 0.03 0.03

GFSNIL_prec_precacc_108.txt.gz
Total_Precipitation_Accumulation
0.18 0.19 0.22 0.29 0.30 0.36 0.44 0.50 0.61 0.75 0.73 0.58 0.56 0.53 0.50 0.52 0.57 0.53 0.56 0.58 0.52 0.40
0.16 0.24 0.19 0.21 0.19 0.19 0.19 0.23 0.29 0.38 0.49 0.43 0.37 0.36 0.34 0.35 0.36 0.37 0.38 0.37 0.39 0.43
0.11 0.22 0.19 0.17 0.12 0.16 0.15 0.13 0.15 0.13 0.13 0.13 0.14 0.15 0.17 0.18 0.19 0.22 0.24 0.32 0.39 0.45
0.05 0.08 0.10 0.08 0.09 0.12 0.13 0.13 0.12 0.11 0.12 0.08 0.06 0.05 0.06 0.10 0.13 0.19 0.23 0.28 0.35 0.40
0.03 0.05 0.06 0.06 0.04 0.04 0.04 0.04 0.02 0.02 0.02 0.02 0.01 0.01 0.02 0.05 0.09 0.11 0.12 0.14 0.22 0.29
0.00 0.00 0.01 0.02 0.02 0.03 0.03 0.02 0.02 0.01 0.02 0.01 0.00 0.00 0.00 0.02 0.04 0.06 0.09 0.13 0.19 0.20
0.02 0.02 0.01 0.01 0.01 0.02 0.02 0.02 0.01 0.02 0.01 0.00 0.00 0.01 0.02 0.04 0.07 0.09 0.09 0.10 0.13 0.19
0.03 0.02 0.02 0.02 0.01 0.01 0.02 0.01 0.01 0.02 0.02 0.02 0.02 0.05 0.07 0.08 0.12 0.16 0.19 0.22 0.26 0.27
0.03 0.02 0.02 0.02 0.01 0.01 0.02 0.03 0.07 0.10 0.13 0.14 0.17 0.30 0.26 0.24 0.26 0.30 0.33 0.34 0.31 0.29
0.05 0.10 0.09 0.10 0.07 0.06 0.06 0.08 0.13 0.22 0.35 0.54 0.70 0.79 0.74 0.66 0.64 0.65 0.52 0.33 0.23 0.15
0.18 0.31 0.55 0.45 0.42 0.39 0.31 0.24 0.27 0.30 0.32 0.41 0.46 0.42 0.31 0.25 0.18 0.13 0.09 0.05 0.02 0.02
0.44 0.54 0.49 0.31 0.49 0.48 0.39 0.44 0.48 0.46 0.37 0.30 0.22 0.16 0.11 0.08 0.06 0.05 0.04 0.02 0.02 0.06
0.70 0.56 0.45 0.23 0.40 0.50 0.39 0.30 0.30 0.29 0.20 0.14 0.08 0.07 0.05 0.04 0.05 0.03 0.02 0.02 0.03 0.05
0.48 0.47 0.37 0.28 0.30 0.28 0.26 0.16 0.12 0.13 0.08 0.04 0.03 0.02 0.02 0.01 0.02 0.03 0.14 0.11 0.03 0.04

GFSNIL_prec_precacc_111.txt.gz
Total_Precipitation_Accumulation
0.30 0.35 0.34 0.38 0.38 0.43 0.50 0.57 0.68 0.83 0.78 0.62 0.60 0.54 0.52 0.56 0.64 0.72 0.88 0.96 0.98 0.81
0.19 0.28 0.21 0.21 0.19 0.19 0.19 0.23 0.29 0.38 0.49 0.43 0.37 0.36 0.34 0.35 0.37 0.41 0.46 0.49 0.57 0.65
0.11 0.22 0.19 0.17 0.12 0.16 0.15 0.13 0.15 0.13 0.13 0.13 0.14 0.15 0.17 0.18 0.19 0.23 0.25 0.32 0.41 0.48
0.05 0.08 0.10 0.08 0.09 0.12 0.13 0.13 0.12 0.11 0.12 0.08 0.06 0.05 0.06 0.10 0.13 0.19 0.23 0.29 0.37 0.41
0.03 0.05 0.06 0.06 0.04 0.04 0.04 0.04 0.02 0.02 0.02 0.02 0.01 0.01 0.02 0.05 0.09 0.12 0.13 0.15 0.24 0.29
0.00 0.00 0.01 0.02 0.02 0.03 0.03 0.02 0.02 0.02 0.02 0.01 0.01 0.00 0.00 0.02 0.04 0.07 0.10 0.13 0.19 0.20
0.02 0.02 0.01 0.01 0.01 0.02 0.02 0.02 0.01 0.02 0.01 0.00 0.00 0.01 0.02 0.04 0.07 0.09 0.09 0.10 0.13 0.19
0.03 0.02 0.02 0.02 0.01 0.01 0.02 0.01 0.01 0.02 0.02 0.02 0.02 0.05 0.07 0.08 0.12 0.16 0.19 0.22 0.26 0.27
0.03 0.02 0.02 0.02 0.01 0.01 0.02 0.03 0.07 0.10 0.13 0.14 0.17 0.30 0.26 0.24 0.26 0.30 0.33 0.34 0.31 0.29
0.05 0.10 0.09 0.10 0.07 0.06 0.06 0.08 0.13 0.22 0.35 0.54 0.70 0.79 0.74 0.66 0.64 0.65 0.52 0.33 0.23 0.15
0.18 0.31 0.55 0.45 0.42 0.39 0.31 0.24 0.27 0.30 0.32 0.41 0.46 0.42 0.31 0.25 0.18 0.13 0.09 0.05 0.02 0.02
0.44 0.54 0.49 0.31 0.49 0.48 0.39 0.44 0.48 0.46 0.37 0.30 0.22 0.16 0.11 0.08 0.06 0.05 0.04 0.02 0.02 0.06
0.70 0.56 0.45 0.23 0.40 0.50 0.39 0.30 0.30 0.29 0.20 0.14 0.08 0.07 0.05 0.04 0.05 0.03 0.02 0.02 0.03 0.05
0.48 0.47 0.37 0.28 0.30 0.28 0.26 0.16 0.12 0.13 0.08 0.04 0.03 0.02 0.02 0.01 0.02 0.03 0.14 0.11 0.03 0.04

GFSNIL_prec_precacc_114.txt.gz
Total_Precipitation_Accumulation
0.44 0.54 0.61 0.59 0.65 0.65 0.72 0.83 1.13 1.07 0.94 0.80 0.77 0.65 0.58 0.60 0.70 0.81 0.97 1.06 1.15 1.08
0.31 0.39 0.32 0.34 0.36 0.38 0.35 0.38 0.40 0.46 0.55 0.46 0.40 0.37 0.35 0.35 0.37 0.42 0.48 0.51 0.59 0.67
0.22 0.31 0.25 0.19 0.13 0.17 0.17 0.14 0.15 0.13 0.13 0.13 0.14 0.15 0.17 0.18 0.19 0.23 0.25 0.32 0.41 0.48
0.11 0.10 0.10 0.09 0.09 0.12 0.13 0.13 0.12 0.11 0.12 0.08 0.06 0.05 0.06 0.10 0.13 0.19 0.23 0.29 0.37 0.42
0.04 0.05 0.06 0.06 0.04 0.04 0.04 0.04 0.02 0.02 0.02 0.02 0.01 0.01 0.02 0.05 0.09 0.12 0.13 0.15 0.24 0.29
0.01 0.00 0.01 0.02 0.02 0.03 0.03 0.02 0.02 0.02 0.02 0.01 0.01 0.00 0.00 0.02 0.04 0.07 0.10 0.13 0.19 0.20
0.02 0.02 0.01 0.01 0.01 0.02 0.02 0.02 0.01 0.02 0.01 0.00 0.00 0.01 0.02 0.04 0.07 0.09 0.09 0.10 0.13 0.19
0.03 0.02 0.02 0.02 0.01 0.01 0.02 0.01 0.01 0.02 0.02 0.02 0.02 0.05 0.07 0.08 0.12 0.16 0.19 0.22 0.26 0.27
0.03 0.02 0.02 0.02 0.01 0.01 0.02 0.03 0.07 0.10 0.13 0.14 0.17 0.30 0.26 0.24 0.26 0.30 0.33 0.34 0.31 0.29
0.05 0.10 0.09 0.10 0.07 0.06 0.06 0.08 0.13 0.22 0.35 0.54 0.70 0.79 0.74 0.66 0.64 0.65 0.52 0.33 0.23 0.15
0.18 0.31 0.55 0.45 0.42 0.39 0.31 0.24 0.27 0.30 0.32 0.41 0.46 0.42 0.31 0.25 0.18 0.13 0.09 0.05 0.02 0.02
0.44 0.54 0.49 0.31 0.49 0.48 0.39 0.44 0.48 0.46 0.37 0.30 0.22 0.16 0.11 0.08 0.06 0.05 0.04 0.02 0.02 0.06
0.70 0.56 0.45 0.23 0.40 0.50 0.39 0.30 0.30 0.29 0.20 0.14 0.08 0.07 0.05 0.04 0.05 0.03 0.02 0.02 0.03 0.05
0.48 0.47 0.37 0.28 0.30 0.28 0.26 0.16 0.12 0.13 0.08 0.04 0.03 0.02 0.02 0.01 0.02 0.03 0.14 0.11 0.03 0.04

GFSNIL_prec_precacc_117.txt.gz
Total_Precipitation_Accumulation
1.33 1.52 1.54 1.32 1.03 0.85 0.91 1.06 1.37 1.33 1.10 0.93 0.93 0.78 0.69 0.71 0.78 0.87 1.02 1.12 1.19 1.12
0.54 0.72 0.76 0.82 0.73 0.58 0.51 0.58 0.62 0.70 0.73 0.62 0.54 0.49 0.47 0.47 0.44 0.43 0.48 0.51 0.59 0.68
0.42 0.50 0.54 0.38 0.24 0.24 0.23 0.19 0.23 0.22 0.21 0.22 0.22 0.22 0.21 0.19 0.19 0.23 0.25 0.32 0.41 0.48
0.24 0.21 0.23 0.23 0.17 0.16 0.16 0.15 0.14 0.14 0.13 0.08 0.06 0.05 0.06 0.10 0.13 0.19 0.23 0.29 0.37 0.42
0.07 0.09 0.10 0.08 0.06 0.05 0.05 0.04 0.02 0.02 0.02 0.02 0.01 0.01 0.02 0.05 0.09 0.12 0.13 0.15 0.24 0.29
0.03 0.02 0.02 0.02 0.02 0.03 0.03 0.02 0.02 0.02 0.02 0.01 0.01 0.00 0.00 0.02 0.04 0.07 0.10 0.13 0.19 0.20
0.03 0.03 0.01 0.01 0.01 0.02 0.02 0.02 0.01 0.02 0.01 0.00 0.00 0.01 0.02 0.04 0.07 0.09 0.09 0.10 0.13 0.19
0.05 0.03 0.02 0.02 0.01 0.01 0.02 0.01 0.01 0.02 0.02 0.02 0.02 0.05 0.07 0.08 0.12 0.16 0.19 0.22 0.26 0.27
0.03 0.02 0.02 0.02 0.01 0.01 0.02 0.03 0.07 0.10 0.13 0.14 0.17 0.30 0.26 0.24 0.26 0.30 0.33 0.34 0.31 0.29
0.05 0.10 0.09 0.10 0.07 0.06 0.06 0.08 0.13 0.22 0.35 0.54 0.70 0.79 0.74 0.66 0.64 0.65 0.52 0.33 0.23 0.15
0.18 0.31 0.55 0.45 0.42 0.39 0.31 0.24 0.27 0.30 0.32 0.41 0.46 0.42 0.31 0.25 0.18 0.13 0.09 0.05 0.02 0.02
0.44 0.54 0.49 0.31 0.49 0.48 0.39 0.44 0.48 0.46 0.37 0.30 0.22 0.16 0.11 0.08 0.06 0.05 0.04 0.02 0.02 0.06
0.70 0.56 0.45 0.23 0.40 0.50 0.39 0.30 0.30 0.29 0.20 0.14 0.08 0.07 0.05 0.04 0.05 0.03 0.02 0.02 0.03 0.05
0.48 0.47 0.37 0.28 0.30 0.28 0.26 0.16 0.12 0.13 0.08 0.04 0.03 0.02 0.02 0.01 0.02 0.03 0.14 0.11 0.03 0.04

GFSNIL_prec_precacc_120.txt.gz
Total_Precipitation_Accumulation
1.80 2.14 2.26 1.80 1.23 0.96 0.97 1.12 1.43 1.38 1.12 0.94 0.94 0.82 0.73 0.75 0.81 0.90 1.04 1.14 1.21 1.12
0.76 1.01 1.29 1.75 1.76 0.88 0.66 0.73 0.80 0.85 0.82 0.67 0.59 0.55 0.53 0.53 0.55 0.56 0.59 0.59 0.61 0.68
0.59 0.63 0.78 0.88 0.98 0.95 0.47 0.35 0.44 0.45 0.37 0.31 0.31 0.34 0.32 0.29 0.24 0.26 0.30 0.36 0.41 0.48
0.36 0.32 0.41 0.43 0.44 0.48 0.50 0.32 0.27 0.27 0.30 0.21 0.14 0.15 0.17 0.18 0.16 0.20 0.23 0.29 0.37 0.42
0.09 0.14 0.16 0.15 0.14 0.16 0.15 0.16 0.12 0.09 0.10 0.08 0.05 0.05 0.04 0.06 0.09 0.12 0.13 0.15 0.24 0.29
0.03 0.03 0.04 0.05 0.07 0.06 0.12 0.09 0.04 0.02 0.03 0.02 0.01 0.00 0.00 0.02 0.04 0.07 0.10 0.13 0.19 0.20
0.04 0.04 0.01 0.02 0.02 0.02 0.03 0.03 0.01 0.02 0.01 0.00 0.00 0.01 0.02 0.04 0.07 0.09 0.09 0.10 0.13 0.19
0.05 0.04 0.02 0.02 0.01 0.01 0.02 0.01 0.01 0.02 0.02 0.02 0.02 0.05 0.07 0.08 0.12 0.16 0.19 0.22 0.26 0.27
0.03 0.03 0.02 0.02 0.01 0.01 0.02 0.03 0.07 0.10 0.13 0.14 0.17 0.30 0.26 0.24 0.26 0.30 0.33 0.34 0.31 0.29
0.05 0.10 0.09 0.10 0.07 0.06 0.06 0.08 0.13 0.22 0.35 0.54 0.70 0.79 0.74 0.66 0.64 0.65 0.52 0.33 0.23 0.15
0.18 0.31 0.55 0.45 0.42 0.39 0.31 0.24 0.27 0.30 0.32 0.41 0.46 0.42 0.31 0.25 0.18 0.13 0.09 0.05 0.02 0.02
0.44 0.54 0.49 0.31 0.49 0.48 0.39 0.44 0.48 0.46 0.37 0.30 0.22 0.16 0.11 0.08 0.06 0.05 0.04 0.02 0.02 0.06
0.70 0.56 0.45 0.23 0.40 0.50 0.39 0.30 0.30 0.29 0.20 0.14 0.08 0.07 0.05 0.04 0.05 0.03 0.02 0.02 0.03 0.05
0.48 0.47 0.37 0.28 0.30 0.28 0.26 0.16 0.12 0.13 0.08 0.04 0.03 0.02 0.02 0.01 0.02 0.03 0.14 0.11 0.03 0.04

GFSNIL_prec_precacc_123.txt.gz
Total_Precipitation_Accumulation
2.04 2.26 2.31 1.86 1.25 0.96 0.97 1.12 1.43 1.38 1.12 0.94 0.94 0.82 0.73 0.75 0.81 0.91 1.05 1.15 1.22 1.14
1.37 1.40 1.57 1.94 1.94 0.92 0.67 0.73 0.81 0.86 0.82 0.67 0.59 0.55 0.53 0.54 0.56 0.61 0.67 0.65 0.66 0.71
0.80 0.83 1.10 1.18 1.40 1.38 0.58 0.40 0.48 0.48 0.38 0.31 0.32 0.35 0.35 0.32 0.28 0.31 0.36 0.46 0.50 0.55
0.43 0.45 0.52 0.58 0.70 1.03 0.97 0.51 0.34 0.32 0.33 0.26 0.19 0.17 0.22 0.25 0.24 0.26 0.26 0.30 0.37 0.42
0.09 0.16 0.21 0.18 0.21 0.41 0.64 0.69 0.32 0.19 0.17 0.16 0.14 0.12 0.16 0.12 0.16 0.16 0.14 0.15 0.24 0.29
0.04 0.04 0.06 0.06 0.09 0.10 0.27 0.43 0.28 0.16 0.12 0.08 0.08 0.08 0.06 0.06 0.05 0.07 0.10 0.13 0.19 0.20
0.05 0.04 0.02 0.03 0.02 0.04 0.09 0.08 0.04 0.05 0.03 0.01 0.01 0.03 0.03 0.04 0.07 0.09 0.09 0.10 0.13 0.19
0.05 0.05 0.03 0.02 0.02 0.03 0.08 0.05 0.01 0.02 0.02 0.02 0.02 0.05 0.07 0.08 0.12 0.16 0.19 0.22 0.26 0.27
0.03 0.03 0.02 0.02 0.01 0.01 0.02 0.03 0.07 0.10 0.13 0.14 0.17 0.30 0.26 0.24 0.26 0.30 0.33 0.34 0.31 0.29
0.05 0.10 0.09 0.10 0.07 0.06 0.06 0.08 0.13 0.22 0.35 0.54 0.70 0.79 0.74 0.66 0.64 0.65 0.52 0.33 0.23 0.15
0.18 0.31 0.55 0.45 0.42 0.39 0.31 0.24 0.27 0.30 0.32 0.41 0.46 0.42 0.31 0.25 0.18 0.13 0.09 0.05 0.02 0.02
0.44 0.54 0.49 0.31 0.49 0.48 0.39 0.44 0.48 0.46 0.37 0.30 0.22 0.16 0.11 0.08 0.06 0.05 0.04 0.02 0.02 0.06
0.70 0.56 0.45 0.23 0.40 0.50 0.39 0.30 0.30 0.29 0.20 0.14 0.08 0.07 0.05 0.04 0.05 0.03 0.02 0.02 0.03 0.05
0.48 0.47 0.37 0.28 0.30 0.28 0.26 0.16 0.12 0.13 0.08 0.04 0.03 0.02 0.02 0.01 0.02 0.03 0.14 0.11 0.03 0.04

GFSNIL_prec_precacc_126.txt.gz
Total_Precipitation_Accumulation
2.78 2.35 2.34 1.87 1.25 0.96 0.98 1.12 1.43 1.38 1.12 0.94 0.95 0.82 0.73 0.75 0.81 0.91 1.05 1.15 1.22 1.14
2.45 1.74 1.67 1.99 1.96 0.93 0.67 0.74 0.82 0.86 0.83 0.67 0.59 0.55 0.53 0.54 0.56 0.61 0.67 0.65 0.66 0.71
1.54 1.72 1.70 1.32 1.47 1.40 0.58 0.41 0.49 0.49 0.39 0.32 0.32 0.35 0.35 0.32 0.28 0.31 0.36 0.46 0.52 0.55
0.60 0.83 1.19 1.31 0.98 1.14 1.02 0.54 0.37 0.34 0.35 0.27 0.19 0.17 0.22 0.25 0.24 0.26 0.27 0.31 0.38 0.43
0.10 0.19 0.31 0.67 0.75 0.75 0.85 0.81 0.39 0.24 0.20 0.17 0.15 0.12 0.16 0.13 0.16 0.16 0.14 0.16 0.24 0.29
0.05 0.05 0.07 0.13 0.24 0.36 0.78 0.74 0.53 0.29 0.17 0.10 0.09 0.10 0.07 0.09 0.08 0.09 0.11 0.13 0.19 0.20
0.06 0.05 0.02 0.04 0.06 0.08 0.27 0.46 0.37 0.30 0.19 0.11 0.05 0.05 0.06 0.07 0.10 0.10 0.10 0.10 0.13 0.19
0.05 0.05 0.04 0.02 0.02 0.04 0.11 0.09 0.10 0.14 0.09 0.06 0.06 0.08 0.09 0.10 0.12 0.16 0.19 0.22 0.26 0.27
0.04 0.03 0.03 0.03 0.01 0.02 0.03 0.05 0.07 0.11 0.15 0.15 0.17 0.31 0.28 0.25 0.26 0.30 0.33 0.34 0.31 0.29
0.06 0.11 0.10 0.12 0.08 0.07 0.06 0.08 0.13 0.22 0.35 0.54 0.70 0.80 0.75 0.67 0.64 0.65 0.52 0.33 0.23 0.15
0.19 0.31 0.55 0.45 0.43 0.39 0.32 0.24 0.27 0.30 0.32 0.41 0.46 0.42 0.31 0.26 0.18 0.13 0.09 0.05 0.02 0.02
0.44 0.54 0.49 0.31 0.49 0.48 0.39 0.44 0.48 0.46 0.37 0.30 0.22 0.16 0.12 0.09 0.06 0.05 0.04 0.02 0.02 0.06
0.71 0.58 0.46 0.25 0.41 0.50 0.39 0.30 0.30 0.29 0.20 0.14 0.08 0.07 0.05 0.04 0.05 0.03 0.02 0.02 0.03 0.05
0.48 0.47 0.37 0.28 0.30 0.28 0.26 0.16 0.12 0.13 0.08 0.04 0.03 0.02 0.02 0.01 0.02 0.03 0.14 0.11 0.03 0.04

GFSNIL_prec_precacc_129.txt.gz
Total_Precipitation_Accumulation
2.87 2.45 2.36 1.87 1.25 0.96 0.98 1.12 1.43 1.38 1.12 0.94 0.95 0.82 0.73 0.75 0.81 0.91 1.05 1.15 1.22 1.14
2.62 1.83 1.72 2.00 1.96 0.93 0.67 0.74 0.82 0.86 0.83 0.67 0.59 0.55 0.53 0.54 0.56 0.61 0.67 0.65 0.66 0.71
1.75 2.05 1.73 1.33 1.47 1.40 0.58 0.41 0.49 0.50 0.39 0.32 0.32 0.35 0.35 0.32 0.28 0.31 0.36 0.46 0.52 0.55
0.75 1.48 1.35 1.37 0.99 1.14 1.02 0.54 0.37 0.35 0.36 0.27 0.19 0.18 0.22 0.25 0.24 0.26 0.27 0.31 0.38 0.43
0.19 0.83 0.66 0.97 0.91 0.81 0.87 0.82 0.40 0.25 0.21 0.18 0.16 0.13 0.16 0.13 0.16 0.16 0.14 0.16 0.24 0.29
0.07 0.18 0.35 0.55 0.68 0.71 0.96 0.81 0.58 0.31 0.20 0.12 0.11 0.11 0.08 0.09 0.08 0.09 0.11 0.13 0.19 0.20
0.06 0.06 0.08 0.18 0.43 0.40 0.69 0.78 0.56 0.52 0.27 0.15 0.10 0.09 0.08 0.09 0.11 0.11 0.11 0.11 0.14 0.19
0.05 0.06 0.04 0.05 0.10 0.23 0.40 0.65 0.57 0.64 0.51 0.28 0.21 0.19 0.16 0.14 0.15 0.19 0.21 0.24 0.26 0.27
0.04 0.05 0.04 0.03 0.02 0.06 0.13 0.20 0.44 0.44 0.65 0.52 0.34 0.43 0.40 0.35 0.32 0.34 0.37 0.36 0.33 0.30
0.07 0.12 0.11 0.12 0.09 0.08 0.09 0.12 0.17 0.31 0.45 0.70 0.89 0.96 0.81 0.73 0.70 0.72 0.60 0.37 0.24 0.15
0.20 0.33 0.57 0.48 0.46 0.42 0.35 0.26 0.29 0.31 0.34 0.45 0.55 0.53 0.38 0.31 0.21 0.16 0.12 0.06 0.02 0.02
0.44 0.54 0.49 0.31 0.49 0.49 0.40 0.45 0.49 0.47 0.38 0.30 0.22 0.18 0.14 0.11 0.06 0.06 0.04 0.02 0.02 0.06
0.71 0.58 0.46 0.26 0.42 0.52 0.43 0.33 0.31 0.30 0.21 0.15 0.09 0.08 0.05 0.05 0.05 0.04 0.02 0.03 0.03 0.05
0.48 0.47 0.37 0.28 0.30 0.28 0.26 0.17 0.13 0.14 0.10 0.06 0.04 0.03 0.03 0.02 0.03 0.03 0.14 0.12 0.03 0.04

GFSNIL_prec_precacc_132.txt.gz
Total_Precipitation_Accumulation
2.90 2.53 2.52 2.05 1.46 1.06 1.03 1.15 1.45 1.38 1.12 0.94 0.95 0.82 0.73 0.75 0.81 0.91 1.05 1.15 1.22 1.14
2.62 1.85 1.82 2.24 2.12 1.00 0.74 0.80 0.85 0.87 0.83 0.67 0.59 0.55 0.53 0.54 0.56 0.61 0.67 0.65 0.66 0.71
1.75 2.05 1.76 1.46 1.61 1.43 0.60 0.43 0.51 0.50 0.40 0.32 0.32 0.35 0.35 0.32 0.28 0.31 0.36 0.46 0.52 0.55
0.75 1.49 1.35 1.39 1.00 1.15 1.02 0.54 0.37 0.35 0.36 0.28 0.20 0.18 0.22 0.25 0.24 0.26 0.27 0.31 0.38 0.43
0.20 0.89 0.68 0.98 0.92 0.81 0.87 0.82 0.40 0.25 0.21 0.19 0.16 0.13 0.16 0.13 0.16 0.16 0.14 0.16 0.24 0.29
0.17 0.49 0.48 0.65 0.71 0.71 0.97 0.82 0.58 0.31 0.20 0.12 0.11 0.11 0.08 0.09 0.08 0.09 0.11 0.14 0.19 0.20
0.11 0.31 0.26 0.37 0.60 0.44 0.70 0.79 0.58 0.54 0.28 0.16 0.10 0.09 0.09 0.10 0.12 0.12 0.12 0.13 0.15 0.20
0.08 0.13 0.08 0.14 0.37 0.56 0.53 0.72 0.62 0.68 0.53 0.29 0.23 0.22 0.19 0.18 0.19 0.24 0.26 0.29 0.30 0.29
0.05 0.06 0.05 0.09 0.14 0.40 0.51 0.55 0.71 0.70 0.94 0.78 0.56 0.59 0.57 0.53 0.51 0.52 0.53 0.51 0.43 0.38
0.07 0.13 0.12 0.15 0.13 0.18 0.31 0.45 0.51 0.74 0.84 1.25 1.49 1.49 1.18 1.00 0.91 0.92 0.80 0.61 0.47 0.33
0.20 0.33 0.58 0.49 0.47 0.44 0.40 0.34 0.40 0.50 0.61 0.65 0.77 0.94 0.87 0.66 0.41 0.29 0.22 0.23 0.20 0.17
0.44 0.54 0.49 0.32 0.50 0.52 0.42 0.47 0.52 0.51 0.50 0.45 0.36 0.34 0.38 0.44 0.41 0.35 0.23 0.13 0.13 0.19
0.71 0.58 0.47 0.26 0.42 0.52 0.43 0.33 0.31 0.30 0.22 0.18 0.12 0.12 0.10 0.12 0.18 0.19 0.15 0.13 0.10 0.14
0.48 0.47 0.37 0.28 0.30 0.28 0.26 0.17 0.13 0.14 0.10 0.06 0.05 0.03 0.03 0.02 0.03 0.04 0.15 0.12 0.04 0.05

GFSNIL_prec_precacc_138.txt.gz
Total_Precipitation_Accumulation
2.97 2.56 2.57 2.12 1.50 1.19 1.16 1.55 1.56 1.40 1.14 0.96 1.08 0.93 0.78 0.79 0.88 0.93 1.05 1.15 1.22 1.14
2.80 2.05 1.97 2.32 2.24 1.12 0.83 0.98 1.30 1.06 0.87 0.71 0.61 0.60 0.57 0.57 0.63 0.65 0.67 0.65 0.66 0.71
2.06 2.43 2.17 1.73 1.80 1.61 0.76 0.57 0.78 1.01 0.69 0.43 0.39 0.38 0.37 0.35 0.32 0.37 0.36 0.46 0.52 0.55
0.97 1.71 1.67 2.03 1.42 1.47 1.17 0.69 0.54 0.58 0.76 0.62 0.35 0.25 0.26 0.27 0.26 0.28 0.27 0.31 0.38 0.43
0.39 0.94 0.82 1.27 1.53 1.39 1.13 0.99 0.54 0.37 0.37 0.41 0.47 0.32 0.25 0.17 0.21 0.18 0.14 0.16 0.24 0.29
0.38 0.57 0.54 0.80 1.00 1.21 1.53 1.11 0.77 0.43 0.30 0.23 0.26 0.32 0.24 0.18 0.14 0.12 0.12 0.14 0.19 0.20
0.54 0.67 0.37 0.41 0.69 0.58 0.88 1.15 0.78 0.70 0.38 0.24 0.20 0.24 0.27 0.24 0.20 0.16 0.15 0.14 0.16 0.20
0.76 0.63 0.46 0.36 0.47 0.64 0.61 0.91 0.77 0.86 0.67 0.42 0.35 0.35 0.35 0.32 0.29 0.31 0.31 0.32 0.32 0.30
0.61 0.62 0.45 0.49 0.42 0.60 0.67 0.67 0.89 0.87 1.04 0.86 0.62 0.65 0.63 0.62 0.59 0.58 0.59 0.57 0.47 0.43
0.53 0.47 0.49 0.50 0.58 0.65 0.87 0.89 1.01 1.33 1.09 1.36 1.56 1.57 1.25 1.09 0.99 0.99 0.88 0.72 0.59 0.46
0.47 0.62 0.85 0.71 0.81 0.93 1.18 1.22 1.28 1.28 1.13 0.96 1.00 1.18 1.14 0.96 0.68 0.52 0.41 0.35 0.36 0.38
0.47 0.57 0.53 0.37 0.55 0.65 0.59 0.67 0.75 0.78 0.75 0.74 0.66 0.66 0.62 0.80 0.74 0.58 0.47 0.40 0.37 0.41
0.71 0.58 0.47 0.26 0.42 0.53 0.43 0.34 0.33 0.32 0.24 0.24 0.21 0.35 0.37 0.33 0.38 0.56 0.61 0.63 0.56 0.59
0.48 0.47 0.37 0.28 0.30 0.28 0.26 0.17 0.13 0.14 0.10 0.06 0.06 0.06 0.08 0.09 0.08 0.11 0.24 0.25 0.24 0.30

GFSNIL_prec_precacc_141.txt.gz
Total_Precipitation_Accumulation
2.97 2.56 2.57 2.12 1.50 1.19 1.16 1.55 1.56 1.40 1.14 0.96 1.10 0.97 0.91 0.88 0.92 1.05 1.18 1.19 1.22 1.14
2.80 2.05 1.97 2.32 2.24 1.12 0.83 0.98 1.30 1.06 0.88 0.71 0.61 0.66 0.69 0.65 0.69 0.76 0.86 0.88 0.80 0.75
2.06 2.43 2.17 1.73 1.80 1.61 0.76 0.57 0.78 1.01 0.69 0.43 0.39 0.39 0.42 0.44 0.36 0.43 0.51 0.61 0.72 0.69
0.97 1.71 1.67 2.03 1.42 1.47 1.17 0.69 0.54 0.58 0.77 0.62 0.36 0.26 0.27 0.29 0.31 0.33 0.34 0.41 0.50 0.53
0.39 0.94 0.82 1.27 1.53 1.39 1.14 1.00 0.55 0.39 0.42 0.45 0.50 0.34 0.27 0.19 0.22 0.20 0.19 0.22 0.32 0.35
0.38 0.57 0.54 0.80 1.01 1.25 1.65 1.18 0.82 0.47 0.34 0.29 0.31 0.37 0.28 0.21 0.17 0.17 0.16 0.19 0.28 0.27
0.55 0.67 0.37 0.41 0.70 0.67 1.13 1.49 0.92 0.80 0.42 0.28 0.30 0.29 0.33 0.33 0.31 0.31 0.26 0.24 0.26 0.33
0.81 0.64 0.46 0.36 0.48 0.67 0.68 1.18 1.20 1.04 0.80 0.45 0.41 0.51 0.43 0.46 0.54 0.55 0.50 0.46 0.46 0.42
0.85 0.77 0.52 0.53 0.45 0.68 0.78 0.96 1.70 1.27 1.39 0.98 0.71 0.74 0.75 0.77 0.83 0.97 1.06 0.94 0.67 0.60
1.16 0.94 0.79 0.68 0.73 0.77 1.07 1.19 1.65 2.08 1.83 1.81 1.89 1.81 1.42 1.25 1.14 1.12 1.10 1.01 0.92 0.66
1.00 1.04 1.28 1.14 1.21 1.33 1.53 1.57 1.60 1.83 1.93 1.30 1.26 1.39 1.28 1.09 0.79 0.61 0.49 0.45 0.47 0.51
0.60 0.75 0.76 0.73 0.96 1.08 0.99 1.11 1.19 1.13 1.02 0.88 0.80 0.77 0.70 0.92 0.86 0.70 0.56 0.46 0.43 0.46
0.71 0.58 0.47 0.26 0.43 0.54 0.45 0.36 0.37 0.36 0.28 0.27 0.23 0.37 0.39 0.35 0.40 0.59 0.64 0.66 0.59 0.63
0.48 0.47 0.37 0.28 0.30 0.28 0.26 0.17 0.13 0.14 0.10 0.06 0.06 0.07 0.08 0.10 0.08 0.11 0.25 0.27 0.25 0.31

GFSNIL_prec_precacc_144.txt.gz
Total_Precipitation_Accumulation
2.97 2.56 2.57 2.12 1.50 1.19 1.16 1.55 1.56 1.40 1.14 0.96 1.10 0.99 1.03 1.00 0.98 1.09 1.20 1.20 1.23 1.15
2.80 2.05 1.97 2.32 2.24 1.12 0.83 0.98 1.30 1.06 0.88 0.71 0.61 0.66 0.71 0.70 0.79 0.88 0.94 0.93 0.85 0.78
2.06 2.43 2.17 1.73 1.80 1.61 0.76 0.57 0.78 1.01 0.69 0.43 0.39 0.39 0.43 0.46 0.36 0.48 0.62 0.71 0.78 0.76
0.97 1.71 1.67 2.03 1.42 1.47 1.17 0.69 0.54 0.58 0.77 0.62 0.36 0.26 0.28 0.31 0.32 0.34 0.36 0.45 0.56 0.58
0.39 0.94 0.82 1.27 1.53 1.39 1.14 1.00 0.55 0.39 0.42 0.45 0.50 0.34 0.28 0.21 0.23 0.21 0.23 0.26 0.35 0.39
0.38 0.57 0.54 0.80 1.01 1.25 1.65 1.18 0.82 0.47 0.34 0.30 0.31 0.37 0.29 0.21 0.17 0.18 0.17 0.20 0.30 0.31
0.55 0.67 0.37 0.41 0.70 0.67 1.13 1.49 0.92 0.81 0.42 0.28 0.30 0.30 0.33 0.34 0.32 0.31 0.27 0.24 0.27 0.34
0.82 0.64 0.46 0.36 0.48 0.67 0.68 1.18 1.21 1.04 0.81 0.45 0.42 0.55 0.46 0.47 0.55 0.55 0.51 0.47 0.47 0.45
0.91 0.78 0.52 0.53 0.45 0.68 0.79 0.98 1.78 1.29 1.44 1.01 0.72 0.79 0.84 0.82 0.87 1.00 1.08 0.98 0.78 0.71
1.41 1.08 0.86 0.72 0.76 0.89 1.19 1.38 2.03 2.35 2.05 2.06 2.03 1.88 1.45 1.33 1.27 1.40 1.37 1.25 1.17 1.03
1.42 1.51 1.81 1.43 1.47 1.62 1.85 1.99 2.10 2.49 2.54 1.73 1.72 1.79 1.50 1.27 0.96 0.77 0.74 0.75 0.74 0.78
0.77 0.97 1.06 1.00 1.32 1.48 1.41 1.57 1.60 1.53 1.49 1.22 1.21 1.17 1.07 1.26 1.29 1.05 0.86 0.73 0.67 0.68
0.72 0.62 0.52 0.34 0.52 0.62 0.53 0.47 0.48 0.45 0.33 0.34 0.33 0.44 0.44 0.42 0.48 0.64 0.68 0.71 0.62 0.67
0.48 0.47 0.37 0.28 0.31 0.28 0.27 0.19 0.16 0.17 0.11 0.06 0.08 0.09 0.12 0.14 0.09 0.13 0.27 0.29 0.28 0.36

GFSNIL_prec_precacc_147.txt.gz
Total_Precipitation_Accumulation
2.97 2.56 2.57 2.12 1.50 1.19 1.16 1.55 1.56 1.40 1.14 0.96 1.10 0.99 1.03 1.02 1.00 1.10 1.20 1.20 1.23 1.15
2.80 2.05 1.97 2.32 2.24 1.12 0.83 0.98 1.30 1.06 0.88 0.71 0.61 0.66 0.72 0.71 0.80 0.91 0.97 0.94 0.85 0.79
2.06 2.43 2.17 1.73 1.80 1.61 0.76 0.57 0.78 1.01 0.69 0.43 0.39 0.39 0.43 0.47 0.37 0.50 0.66 0.78 0.85 0.82
0.97 1.71 1.67 2.03 1.42 1.47 1.17 0.69 0.54 0.58 0.77 0.62 0.36 0.26 0.28 0.31 0.33 0.35 0.36 0.47 0.62 0.66
0.39 0.94 0.82 1.27 1.53 1.39 1.14 1.00 0.55 0.39 0.42 0.45 0.50 0.34 0.28 0.21 0.24 0.22 0.23 0.26 0.35 0.40
0.38 0.57 0.54 0.80 1.01 1.25 1.65 1.18 0.82 0.47 0.34 0.30 0.31 0.37 0.29 0.21 0.18 0.19 0.18 0.20 0.30 0.31
0.56 0.68 0.37 0.42 0.70 0.67 1.13 1.49 0.92 0.81 0.42 0.28 0.31 0.30 0.33 0.34 0.32 0.32 0.28 0.25 0.27 0.35
0.83 0.65 0.47 0.37 0.49 0.68 0.68 1.19 1.21 1.04 0.81 0.46 0.43 0.56 0.46 0.48 0.56 0.56 0.52 0.47 0.47 0.45
1.09 0.81 0.52 0.53 0.46 0.69 0.80 1.00 1.80 1.30 1.44 1.02 0.73 0.80 0.84 0.83 0.88 1.01 1.09 0.99 0.78 0.71
1.52 1.12 0.88 0.72 0.76 0.91 1.21 1.41 2.05 2.38 2.10 2.11 2.06 1.91 1.46 1.34 1.28 1.43 1.42 1.29 1.20 1.06
1.70 1.77 2.02 1.54 1.56 1.76 1.98 2.19 2.32 2.75 2.79 1.90 1.84 1.91 1.61 1.34 1.07 0.89 0.93 0.97 0.97 1.01
0.95 1.22 1.37 1.31 1.69 1.75 1.69 1.88 1.93 1.89 1.89 1.51 1.41 1.37 1.30 1.48 1.49 1.33 1.13 0.97 0.90 0.92
0.78 0.72 0.62 0.45 0.67 0.79 0.68 0.61 0.63 0.58 0.47 0.47 0.40 0.54 0.57 0.57 0.66 0.80 0.81 0.84 0.73 0.84
0.48 0.47 0.38 0.29 0.32 0.31 0.31 0.22 0.19 0.21 0.14 0.07 0.09 0.12 0.16 0.16 0.12 0.17 0.31 0.33 0.29 0.36

GFSNIL_prec_precacc_150.txt.gz
Total_Precipitation_Accumulation
2.97 2.56 2.57 2.12 1.50 1.19 1.16 1.55 1.56 1.40 1.14 0.96 1.10 0.99 1.03 1.02 1.02 1.12 1.22 1.22 1.25 1.16
2.80 2.05 1.97 2.32 2.24 1.12 0.84 0.98 1.30 1.06 0.88 0.71 0.61 0.66 0.72 0.71 0.80 0.92 0.98 0.95 0.86 0.79
2.06 2.43 2.17 1.74 1.80 1.62 0.77 0.59 0.80 1.02 0.69 0.43 0.39 0.39 0.44 0.47 0.38 0.50 0.66 0.78 0.85 0.83
0.97 1.71 1.67 2.04 1.42 1.48 1.19 0.69 0.57 0.61 0.78 0.63 0.36 0.26 0.28 0.31 0.34 0.36 0.37 0.47 0.62 0.68
0.39 0.94 0.82 1.27 1.53 1.41 1.15 1.01 0.56 0.42 0.45 0.47 0.51 0.34 0.28 0.21 0.24 0.23 0.24 0.26 0.35 0.40
0.38 0.58 0.54 0.80 1.01 1.26 1.68 1.21 0.84 0.48 0.36 0.31 0.32 0.37 0.29 0.21 0.18 0.19 0.19 0.21 0.30 0.31
0.57 0.68 0.37 0.42 0.70 0.67 1.13 1.49 0.93 0.81 0.42 0.29 0.31 0.31 0.34 0.34 0.32 0.32 0.28 0.26 0.27 0.35
0.85 0.65 0.47 0.37 0.52 0.70 0.69 1.19 1.25 1.08 0.84 0.47 0.45 0.58 0.47 0.48 0.56 0.56 0.52 0.48 0.49 0.45
1.15 0.83 0.52 0.53 0.49 0.75 0.86 1.06 1.85 1.35 1.47 1.05 0.75 0.81 0.84 0.83 0.88 1.01 1.09 1.00 0.80 0.74
1.56 1.14 0.88 0.72 0.77 0.91 1.22 1.41 2.06 2.38 2.10 2.11 2.06 1.92 1.46 1.34 1.29 1.45 1.45 1.33 1.24 1.09
1.89 1.95 2.12 1.58 1.57 1.78 2.00 2.21 2.34 2.79 2.85 1.99 1.90 1.96 1.64 1.37 1.10 0.94 0.95 0.98 0.98 1.06
1.05 1.44 1.66 1.58 1.96 2.06 2.04 2.23 2.32 2.27 2.21 1.77 1.67 1.55 1.43 1.66 1.61 1.43 1.23 1.06 0.93 0.98
0.80 0.76 0.68 0.58 0.81 0.96 0.88 0.78 0.81 0.75 0.67 0.72 0.61 0.75 0.81 0.75 0.87 0.95 0.96 1.02 0.80 0.96
0.48 0.47 0.38 0.30 0.34 0.35 0.37 0.31 0.28 0.28 0.18 0.11 0.11 0.16 0.23 0.22 0.19 0.22 0.37 0.38 0.34 0.39

GFSNIL_prec_precacc_153.txt.gz
Total_Precipitation_Accumulation
2.97 2.56 2.57 2.12 1.50 1.19 1.16 1.55 1.56 1.40 1.14 0.96 1.10 0.99 1.03 1.02 1.03 1.15 1.25 1.27 1.29 1.19
2.80 2.05 1.97 2.32 2.24 1.12 0.84 0.98 1.30 1.06 0.88 0.71 0.61 0.66 0.72 0.71 0.81 0.93 1.00 0.97 0.89 0.82
2.06 2.43 2.17 1.74 1.80 1.62 0.77 0.61 0.82 1.03 0.70 0.44 0.39 0.39 0.44 0.47 0.39 0.51 0.67 0.80 0.87 0.84
0.97 1.71 1.67 2.04 1.42 1.48 1.19 0.71 0.62 0.66 0.83 0.65 0.37 0.27 0.29 0.32 0.34 0.37 0.39 0.49 0.64 0.69
0.40 0.94 0.82 1.27 1.53 1.41 1.16 1.01 0.57 0.52 0.54 0.50 0.54 0.37 0.30 0.22 0.25 0.24 0.25 0.27 0.37 0.42
0.38 0.58 0.54 0.80 1.01 1.26 1.68 1.22 0.85 0.60 0.61 0.37 0.37 0.42 0.32 0.23 0.19 0.20 0.20 0.23 0.31 0.31
0.58 0.68 0.37 0.42 0.70 0.67 1.13 1.49 0.93 0.81 0.43 0.29 0.32 0.31 0.34 0.35 0.33 0.32 0.28 0.26 0.28 0.35
0.85 0.66 0.47 0.37 0.52 0.70 0.69 1.19 1.25 1.09 0.86 0.51 0.49 0.62 0.49 0.50 0.57 0.57 0.52 0.48 0.49 0.46
1.15 0.83 0.52 0.53 0.49 0.77 0.88 1.08 1.88 1.38 1.49 1.07 0.78 0.84 0.86 0.84 0.89 1.02 1.10 1.01 0.81 0.75
1.57 1.14 0.88 0.72 0.77 0.91 1.23 1.42 2.06 2.39 2.10 2.12 2.07 1.92 1.48 1.37 1.32 1.47 1.48 1.35 1.25 1.10
1.93 1.98 2.15 1.59 1.58 1.79 2.01 2.21 2.34 2.80 2.85 1.99 1.90 1.96 1.64 1.37 1.13 0.97 0.96 0.98 0.99 1.07
1.06 1.47 1.74 1.75 2.17 2.27 2.31 2.53 2.58 2.46 2.37 1.88 1.75 1.62 1.47 1.67 1.62 1.45 1.24 1.07 0.94 1.00
0.80 0.77 0.70 0.64 0.94 1.10 1.00 0.88 1.00 1.08 1.09 1.03 0.90 0.95 0.93 0.82 0.99 1.14 1.08 1.14 0.92 1.07
0.48 0.47 0.38 0.30 0.34 0.35 0.42 0.40 0.33 0.34 0.28 0.26 0.23 0.23 0.33 0.37 0.40 0.42 0.50 0.51 0.46 0.51